WD9GET Weather Reports


Display with metric or nautical units.
time (UTC)temp
F
wind
direction
speed
MPH
gust
MPH
rain 1hr
in
rain 24hr
in
rain mn
in
humidity
%
barometer
mb
20260904171107 84 222 2.0 7.0 0.00 0.00 0.00 74 1014.4
20260904171015 83 231 2.0 7.0 0.00 0.00 0.00 77 1014.5
20260904171008 84 198 2.0 7.0 0.00 0.00 0.00 74 1014.5
20260904170910 84 316 2.0 7.0 0.00 0.00 0.00 76 1014.5
20260904170857 83 242 2.0 7.0 0.00 0.00 0.00 77 1014.5
20260904170703 83 291 2.0 5.0 0.00 0.00 0.00 77 1014.5
20260904170602 83 253 2.0 5.0 0.00 0.00 0.00 77 1014.5
20260904170500 83 241 2.0 6.0 0.00 0.00 0.00 79 1014.5
20260904170400 83 244 2.0 6.0 0.00 0.00 0.00 78 1014.6
20260904170300 83 305 2.0 6.0 0.00 0.00 0.00 78 1014.6
20260904170249 83 54 2.0 6.0 0.00 0.00 0.00 78 1014.6
20260904170159 83 310 2.0 6.0 0.00 0.00 0.00 78 1014.6
20260904170057 83 258 2.0 6.0 0.00 0.00 0.00 78 1014.6
20260904165957 83 237 2.0 6.0 0.00 0.00 0.00 78 1014.6
20260904165857 83 255 2.0 6.0 0.00 0.00 0.00 78 1014.6
20260904165752 83 249 2.0 6.0 0.00 0.00 0.00 79 1014.6
20260904165746 83 271 2.0 6.0 0.00 0.00 0.00 79 1014.6
20260904165651 83 295 2.0 8.0 0.00 0.00 0.00 78 1014.6
20260904165548 83 245 2.0 8.0 0.00 0.00 0.00 78 1014.6
20260904165448 84 26 2.0 8.0 0.00 0.00 0.00 78 1014.6
20260904165345 84 250 2.0 8.0 0.00 0.00 0.00 78 1014.6
20260904165246 85 266 3.0 8.0 0.00 0.00 0.00 77 1014.6
20260904165136 85 232 2.0 8.0 0.00 0.00 0.00 77 1014.6
20260904165036 85 256 2.0 8.0 0.00 0.00 0.00 77 1014.6
20260904164936 86 170 2.0 8.0 0.00 0.00 0.00 74 1014.6
20260904164836 86 169 2.0 8.0 0.00 0.00 0.00 74 1014.6
20260904164741 86 219 2.0 8.0 0.00 0.00 0.00 74 1014.6
20260904164736 86 229 2.0 8.0 0.00 0.00 0.00 74 1014.6
20260904164636 87 262 2.0 5.0 0.00 0.00 0.00 72 1014.6
20260904164536 87 246 2.0 5.0 0.00 0.00 0.00 72 1014.6
20260904164436 87 218 2.0 5.0 0.00 0.00 0.00 75 1014.6
20260904164246 86 284 2.0 5.0 0.00 0.00 0.00 76 1014.6
20260904164233 86 283 2.0 5.0 0.00 0.00 0.00 76 1014.6
20260904164127 86 233 2.0 5.0 0.00 0.00 0.00 76 1014.6
20260904164021 86 241 2.0 5.0 0.00 0.00 0.00 76 1014.6
20260904163915 86 173 2.0 5.0 0.00 0.00 0.00 76 1014.6
20260904163815 85 165 2.0 5.0 0.00 0.00 0.00 76 1014.6
20260904163740 85 188 2.0 5.0 0.00 0.00 0.00 77 1014.6
20260904163716 85 168 3.0 6.0 0.00 0.00 0.00 77 1014.6
20260904163616 85 92 3.0 6.0 0.00 0.00 0.00 77 1014.6
20260904163512 85 69 3.0 6.0 0.00 0.00 0.00 78 1014.6
20260904163456 84 73 3.0 6.0 0.00 0.00 0.00 78 1014.5
20260904163405 85 200 3.0 6.0 0.00 0.00 0.00 78 1014.5
20260904163338 84 179 3.0 6.0 0.00 0.00 0.00 78 1014.5
20260904163201 84 60 3.0 6.0 0.00 0.00 0.00 78 1014.5
20260904163101 84 92 3.0 6.0 0.00 0.00 0.00 78 1014.5
20260904163001 84 103 3.0 6.0 0.00 0.00 0.00 78 1014.5
20260904162851 84 91 3.0 6.0 0.00 0.00 0.00 78 1014.5
20260904162751 84 76 3.0 6.0 0.00 0.00 0.00 78 1014.5
20260904162731 84 84 3.0 6.0 0.00 0.00 0.00 78 1014.5
20260904162648 84 98 3.0 6.0 0.00 0.00 0.00 78 1014.5
20260904162546 84 110 3.0 6.0 0.00 0.00 0.00 78 1014.5
20260904162446 84 80 3.0 6.0 0.00 0.00 0.00 77 1014.5
20260904162346 84 198 3.0 6.0 0.00 0.00 0.00 78 1014.6
20260904162246 84 84 2.0 6.0 0.00 0.00 0.00 80 1014.6
20260904162229 84 65 2.0 6.0 0.00 0.00 0.00 80 1014.6
20260904162146 84 113 2.0 5.0 0.00 0.00 0.00 83 1014.6
20260904162046 84 93 2.0 5.0 0.00 0.00 0.00 83 1014.6
20260904161955 84 119 2.0 5.0 0.00 0.00 0.00 84 1014.5
20260904161946 84 70 2.0 5.0 0.00 0.00 0.00 83 1014.6
20260904161845 84 89 2.0 5.0 0.00 0.00 0.00 83 1014.6
20260904161835 84 58 2.0 5.0 0.00 0.00 0.00 84 1014.5
20260904161642 84 110 2.0 5.0 0.00 0.00 0.00 85 1014.5
20260904161543 84 55 2.0 5.0 0.00 0.00 0.00 85 1014.5
20260904161424 84 47 2.0 5.0 0.00 0.00 0.00 85 1014.5
20260904161325 84 108 2.0 5.0 0.00 0.00 0.00 85 1014.5
20260904161230 84 87 2.0 5.0 0.00 0.00 0.00 86 1014.5
20260904161219 84 83 2.0 5.0 0.00 0.00 0.00 86 1014.5
20260904161118 84 55 2.0 4.0 0.00 0.00 0.00 86 1014.5
20260904161018 84 88 2.0 4.0 0.00 0.00 0.00 86 1014.5
20260904160918 84 98 2.0 5.0 0.00 0.00 0.00 86 1014.5
20260904160813 84 105 2.0 5.0 0.00 0.00 0.00 87 1014.5
20260904160729 84 91 2.0 5.0 0.00 0.00 0.00 87 1014.5
20260904160709 84 97 2.0 5.0 0.00 0.00 0.00 87 1014.4
20260904160601 84 51 2.0 5.0 0.00 0.00 0.00 90 1014.3
20260904160443 84 80 2.0 5.0 0.00 0.00 0.00 90 1014.3
20260904160343 84 63 2.0 5.0 0.00 0.00 0.00 90 1014.3
20260904160226 84 61 2.0 5.0 0.00 0.00 0.00 90 1014.3
20260904160134 84 36 2.0 5.0 0.00 0.00 0.00 90 1014.3
20260904160033 84 75 2.0 5.0 0.00 0.00 0.00 90 1014.3
20260904155931 84 57 2.0 5.0 0.00 0.00 0.00 90 1014.3
20260904155831 84 5 2.0 5.0 0.00 0.00 0.00 90 1014.3
20260904155728 84 104 2.0 5.0 0.00 0.00 0.00 90 1014.3
20260904155625 84 75 2.0 5.0 0.00 0.00 0.00 90 1014.2
20260904155525 84 112 2.0 5.0 0.00 0.00 0.00 90 1014.2
20260904155425 84 41 2.0 5.0 0.00 0.00 0.00 90 1014.2
20260904155325 84 79 2.0 5.0 0.00 0.00 0.00 90 1014.2
20260904155227 84 85 2.0 5.0 0.00 0.00 0.00 90 1014.2
20260904155222 84 89 2.0 5.0 0.00 0.00 0.00 90 1014.2
20260904155122 84 99 2.0 5.0 0.00 0.00 0.00 89 1014.1
20260904155016 84 62 2.0 5.0 0.00 0.00 0.00 89 1014.1
20260904154916 84 111 2.0 4.0 0.00 0.00 0.00 89 1014.1
20260904154809 84 0 1.0 4.0 0.00 0.00 0.00 89 1014.1
20260904154722 84 43 2.0 4.0 0.00 0.00 0.00 89 1014.1
20260904154707 84 43 1.0 4.0 0.00 0.00 0.00 89 1014.2
20260904154607 84 35 1.0 3.0 0.00 0.00 0.00 89 1014.2
20260904154507 84 328 1.0 3.0 0.00 0.00 0.00 89 1014.2
20260904154407 84 58 1.0 3.0 0.00 0.00 0.00 89 1014.2
20260904154307 84 36 1.0 2.0 0.00 0.00 0.00 89 1014.2
20260904154217 84 26 1.0 2.0 0.00 0.00 0.00 89 1014.2
20260904154203 84 42 1.0 2.0 0.00 0.00 0.00 89 1014.1
20260904154058 84 28 1.0 2.0 0.00 0.00 0.00 89 1014.1
20260904153947 84 32 1.0 2.0 0.00 0.00 0.00 89 1014.1
20260904153847 84 68 1.0 2.0 0.00 0.00 0.00 89 1014.1
20260904153747 83 57 1.0 2.0 0.00 0.00 0.00 89 1014.0
20260904153719 83 77 1.0 2.0 0.00 0.00 0.00 89 1014.0
20260904153647 83 356 1.0 2.0 0.00 0.00 0.00 89 1014.0
20260904153540 83 76 1.0 3.0 0.00 0.00 0.00 89 1014.0
20260904153440 83 40 1.0 3.0 0.00 0.00 0.00 89 1014.0
20260904153334 83 49 1.0 3.0 0.00 0.00 0.00 89 1014.0
20260904153236 83 50 1.0 3.0 0.00 0.00 0.00 89 1014.0
20260904153218 83 48 1.0 3.0 0.00 0.00 0.00 89 1014.0
20260904153131 83 0 1.0 4.0 0.00 0.00 0.00 89 1013.9
20260904153032 83 75 2.0 4.0 0.00 0.00 0.00 89 1013.9
20260904152922 83 42 2.0 4.0 0.00 0.00 0.00 89 1013.9
20260904152819 83 67 2.0 4.0 0.00 0.00 0.00 90 1013.9
20260904152717 83 41 2.0 4.0 0.00 0.00 0.00 90 1013.9
20260904152613 83 345 2.0 4.0 0.00 0.00 0.00 90 1013.9
20260904152513 83 24 2.0 4.0 0.00 0.00 0.00 90 1013.9
20260904152432 83 87 1.0 4.0 0.00 0.00 0.00 90 1014.0
20260904152414 83 15 2.0 4.0 0.00 0.00 0.00 90 1014.0
20260904152319 83 37 2.0 4.0 0.00 0.00 0.00 90 1014.0
20260904152313 83 98 2.0 4.0 0.00 0.00 0.00 90 1014.0
20260904152114 83 59 1.0 3.0 0.00 0.00 0.00 90 1014.0
20260904152013 83 26 1.0 3.0 0.00 0.00 0.00 91 1014.0
20260904151913 83 29 1.0 3.0 0.00 0.00 0.00 92 1014.1
20260904151810 83 57 1.0 3.0 0.00 0.00 0.00 92 1014.1
20260904151709 83 74 1.0 3.0 0.00 0.00 0.00 92 1014.0
20260904151608 83 109 1.0 3.0 0.00 0.00 0.00 92 1014.0
20260904151508 83 128 1.0 2.0 0.00 0.00 0.00 92 1014.0
20260904151408 83 62 1.0 2.0 0.00 0.00 0.00 92 1014.0
20260904151308 83 2 1.0 2.0 0.00 0.00 0.00 92 1013.9
20260904151205 83 63 1.0 2.0 0.00 0.00 0.00 92 1013.7
20260904151104 83 101 1.0 2.0 0.00 0.00 0.00 92 1013.7
20260904151005 83 7 1.0 2.0 0.00 0.00 0.00 92 1013.7
20260904150905 83 0 1.0 3.0 0.00 0.00 0.00 92 1013.7
20260904150805 83 70 1.0 3.0 0.00 0.00 0.00 92 1013.7
20260904150705 83 34 1.0 3.0 0.00 0.00 0.00 92 1013.7
20260904150601 83 16 1.0 3.0 0.00 0.00 0.00 92 1013.7
20260904150459 83 33 1.0 3.0 0.00 0.00 0.00 92 1013.7
20260904150421 83 16 1.0 3.0 0.00 0.00 0.00 92 1013.6
20260904150359 83 30 1.0 3.0 0.00 0.00 0.00 92 1013.6
20260904150313 83 349 1.0 3.0 0.00 0.00 0.00 92 1013.6
20260904150301 83 16 1.0 3.0 0.00 0.00 0.00 92 1013.6
20260904150053 83 9 1.0 3.0 0.00 0.00 0.00 91 1013.7
20260904145953 83 38 2.0 3.0 0.00 0.00 0.00 91 1013.7
20260904145850 83 25 2.0 3.0 0.00 0.00 0.00 91 1013.7
20260904145747 83 344 2.0 3.0 0.00 0.00 0.00 91 1013.7
20260904145652 83 358 2.0 3.0 0.00 0.00 0.00 91 1013.7
20260904145643 83 355 2.0 3.0 0.00 0.00 0.00 91 1013.7
20260904145541 83 28 2.0 3.0 0.00 0.00 0.00 91 1013.7
20260904145441 83 33 2.0 3.0 0.00 0.00 0.00 91 1013.7
20260904145338 83 34 2.0 3.0 0.00 0.00 0.00 91 1013.7
20260904145238 83 10 2.0 3.0 0.00 0.00 0.00 91 1013.7
20260904145149 83 42 2.0 3.0 0.00 0.00 0.00 91 1013.7
20260904145137 83 33 2.0 3.0 0.00 0.00 0.00 91 1013.7
20260904145035 83 1 2.0 3.0 0.00 0.00 0.00 91 1013.7
20260904144935 83 351 2.0 3.0 0.00 0.00 0.00 91 1013.7
20260904144836 84 3 1.0 3.0 0.00 0.00 0.00 91 1013.7
20260904144733 84 359 1.0 3.0 0.00 0.00 0.00 91 1013.7
20260904144645 84 14 1.0 3.0 0.00 0.00 0.00 91 1013.7
20260904144632 84 22 1.0 3.0 0.00 0.00 0.00 91 1013.7
20260904144533 84 41 1.0 3.0 0.00 0.00 0.00 90 1013.8
20260904144426 84 35 1.0 3.0 0.00 0.00 0.00 90 1013.8
20260904144327 84 34 1.0 3.0 0.00 0.00 0.00 90 1013.8
20260904144223 84 23 1.0 3.0 0.00 0.00 0.00 90 1013.8
20260904144146 84 25 1.0 3.0 0.00 0.00 0.00 90 1013.7
20260904144123 84 43 1.0 3.0 0.00 0.00 0.00 90 1013.7
20260904144024 84 90 1.0 3.0 0.00 0.00 0.00 90 1013.7
20260904143919 84 23 1.0 3.0 0.00 0.00 0.00 90 1013.7
20260904143904 84 17 1.0 3.0 0.00 0.00 0.00 89 1013.6
20260904143817 84 53 1.0 3.0 0.00 0.00 0.00 89 1013.6
20260904143752 84 35 1.0 3.0 0.00 0.00 0.00 89 1013.6
20260904143617 84 5 1.0 3.0 0.00 0.00 0.00 89 1013.6
20260904143518 84 6 1.0 2.0 0.00 0.00 0.00 89 1013.6
20260904143414 84 14 1.0 2.0 0.00 0.00 0.00 89 1013.6
20260904143314 84 2 1.0 3.0 0.00 0.00 0.00 89 1013.6
20260904143215 84 12 1.0 3.0 0.00 0.00 0.00 89 1013.6
20260904143143 84 56 1.0 4.0 0.00 0.00 0.00 89 1013.6
20260904143112 84 20 1.0 4.0 0.00 0.00 0.00 89 1013.6
20260904143011 84 359 2.0 4.0 0.00 0.00 0.00 89 1013.6
20260904142912 84 69 2.0 4.0 0.00 0.00 0.00 89 1013.6
20260904142812 84 30 2.0 4.0 0.00 0.00 0.00 89 1013.5
20260904142710 84 50 2.0 5.0 0.00 0.00 0.00 89 1013.5
20260904142643 84 32 2.0 5.0 0.00 0.00 0.00 89 1013.5
20260904142605 84 45 2.0 5.0 0.00 0.00 0.00 90 1013.5
20260904142506 83 28 2.0 5.0 0.00 0.00 0.00 90 1013.4
20260904142406 83 30 2.0 5.0 0.00 0.00 0.00 90 1013.4
20260904142306 83 25 2.0 5.0 0.00 0.00 0.00 91 1013.4
20260904142206 83 35 2.0 5.0 0.00 0.00 0.00 91 1013.4
20260904142143 83 16 2.0 5.0 0.00 0.00 0.00 91 1013.4
20260904142103 83 26 2.0 5.0 0.00 0.00 0.00 91 1013.5
20260904142000 83 27 2.0 5.0 0.00 0.00 0.00 92 1013.5
20260904141900 82 14 2.0 5.0 0.00 0.00 0.00 93 1013.5
20260904141800 82 14 2.0 5.0 0.00 0.00 0.00 94 1013.5
20260904141659 82 12 2.0 4.0 0.00 0.00 0.00 96 1013.5
20260904141643 82 38 2.0 4.0 0.00 0.00 0.00 96 1013.5
20260904141559 81 8 2.0 3.0 0.00 0.00 0.00 98 1013.5
20260904141457 81 25 2.0 3.0 0.00 0.00 0.00 98 1013.5
20260904141341 81 46 2.0 3.0 0.00 0.00 0.00 98 1013.5
20260904141242 81 352 2.0 3.0 0.00 0.00 0.00 99 1013.5
20260904141142 81 14 1.0 3.0 0.00 0.00 0.00 99 1013.5
20260904141041 80 350 1.0 3.0 0.00 0.00 0.00 99 1013.5
20260904140942 80 35 1.0 2.0 0.00 0.00 0.00 99 1013.5
20260904140840 80 85 1.0 2.0 0.00 0.00 0.00 100 1013.5
20260904140740 80 52 1.0 2.0 0.00 0.00 0.00 100 1013.6
20260904140626 80 13 1.0 2.0 0.00 0.00 0.00 100 1013.6
20260904140610 80 46 1.0 2.0 0.00 0.00 0.00 100 1013.6
20260904140512 80 355 1.0 2.0 0.00 0.00 0.00 100 1013.6
20260904140411 80 4 1.0 2.0 0.00 0.00 0.00 100 1013.5
20260904140311 79 0 1.0 2.0 0.00 0.00 0.00 100 1013.5
20260904140210 79 0 1.0 2.0 0.00 0.00 0.00 100 1013.5
20260904140058 79 54 2.0 2.0 0.00 0.00 0.00 100 1013.4
20260904135957 79 293 2.0 2.0 0.00 0.00 0.00 100 1013.4
20260904135857 79 351 2.0 2.0 0.00 0.00 0.00 100 1013.4
20260904135815 79 9 2.0 3.0 0.00 0.00 0.00 100 1013.4
20260904135742 79 358 2.0 3.0 0.00 0.00 0.00 100 1013.4
20260904135701 79 26 2.0 3.0 0.00 0.00 0.00 100 1013.4
20260904135512 79 5 2.0 3.0 0.00 0.00 0.00 100 1013.4
20260904135411 79 14 1.0 3.0 0.00 0.00 0.00 100 1013.4
20260904135311 79 14 1.0 3.0 0.00 0.00 0.00 100 1013.4
20260904135211 79 41 1.0 3.0 0.00 0.00 0.00 100 1013.4
20260904135042 79 26 1.0 3.0 0.00 0.00 0.00 100 1013.4
20260904134941 79 9 1.0 3.0 0.00 0.00 0.00 100 1013.4
20260904134828 79 359 0.0 2.0 0.00 0.00 0.00 100 1013.4
20260904134726 79 14 0.0 2.0 0.00 0.00 0.00 100 1013.4
20260904134612 79 47 0.0 2.0 0.00 0.00 0.00 100 1013.4
20260904134512 79 348 0.0 1.0 0.00 0.00 0.00 100 1013.4
20260904134456 79 348 0.0 1.0 0.00 0.00 0.00 100 1013.4
20260904134411 79 59 0.0 1.0 0.00 0.00 0.00 100 1013.4
20260904134311 78 260 0.0 1.0 0.00 0.00 0.00 100 1013.3
20260904134215 78 0 0.0 1.0 0.00 0.00 0.00 100 1013.4
20260904134142 78 271 0.0 1.0 0.00 0.00 0.00 100 1013.3
20260904134101 78 275 0.0 1.0 0.00 0.00 0.00 100 1013.3
20260904133912 78 0 0.0 1.0 0.00 0.00 0.00 100 1013.4
20260904133812 78 0 0.0 1.0 0.00 0.00 0.00 100 1013.3
20260904133711 78 357 0.0 1.0 0.00 0.00 0.00 100 1013.3
20260904133556 78 0 0.0 1.0 0.00 0.00 0.00 100 1013.3
20260904133441 78 0 0.0 1.0 0.00 0.00 0.00 100 1013.3
20260904133357 78 0 0.0 1.0 0.00 0.00 0.00 100 1013.3
20260904133242 78 0 0.0 1.0 0.00 0.00 0.00 100 1013.3
20260904133142 78 335 0.0 1.0 0.00 0.00 0.00 100 1013.3
20260904133027 78 327 0.0 1.0 0.00 0.00 0.00 100 1013.3
20260904132927 78 11 0.0 1.0 0.00 0.00 0.00 100 1013.3
20260904132827 78 0 0.0 0.0 0.00 0.00 0.00 100 1013.3
20260904132727 78 0 0.0 0.0 0.00 0.00 0.00 100 1013.3
20260904132527 78 46 0.0 1.0 0.00 0.00 0.00 100 1013.2
20260904132415 78 79 0.0 1.0 0.00 0.00 0.00 100 1013.2
20260904132411 78 188 0.0 1.0 0.00 0.00 0.00 100 1013.2
20260904132257 78 0 0.0 1.0 0.00 0.00 0.00 100 1013.2
20260904132142 78 0 0.0 1.0 0.00 0.00 0.00 100 1013.1
20260904132043 78 0 0.0 1.0 0.00 0.00 0.00 100 1013.1
20260904131943 78 0 0.0 1.0 0.00 0.00 0.00 100 1013.1
20260904131911 78 0 0.0 1.0 0.00 0.00 0.00 100 1013.1
20260904131842 78 0 0.0 1.0 0.00 0.00 0.00 100 1013.1
20260904131743 78 337 0.0 1.0 0.00 0.00 0.00 100 1013.1
20260904131627 78 301 0.0 1.0 0.00 0.00 0.00 100 1013.2
20260904131527 78 0 0.0 1.0 0.00 0.00 0.00 100 1013.2
20260904131411 78 0 0.0 1.0 0.00 0.00 0.00 100 1013.1
20260904131142 78 0 0.0 1.0 0.00 0.00 0.00 100 1013.1
20260904131027 78 305 0.0 1.0 0.00 0.00 0.00 100 1013.1
20260904130927 78 0 0.0 1.0 0.00 0.00 0.00 100 1013.1
20260904130827 78 292 0.0 1.0 0.00 0.00 0.00 100 1013.1
20260904130810 78 0 0.0 1.0 0.00 0.00 0.00 100 1013.1
20260904130729 78 14 0.0 1.0 0.00 0.00 0.00 100 1013.1
20260904130613 78 0 0.0 1.0 0.00 0.00 0.00 100 1013.1
20260904130459 78 0 0.0 1.0 0.00 0.00 0.00 100 1013.1
20260904130357 78 0 0.0 1.0 0.00 0.00 0.00 100 1013.1
20260904130257 78 305 0.0 1.0 0.00 0.00 0.00 100 1013.2
20260904130058 78 290 0.0 1.0 0.00 0.00 0.00 100 1013.2
20260904125927 78 0 0.0 1.0 0.00 0.00 0.00 100 1013.2
20260904125811 78 137 0.0 1.0 0.00 0.00 0.00 100 1013.1
20260904125659 78 137 0.0 1.0 0.00 0.00 0.00 100 1013.1
20260904125318 78 70 0.0 1.0 0.00 0.00 0.00 100 1013.1
20260904125127 78 0 0.0 1.0 0.00 0.00 0.00 100 1013.1
20260904125057 78 0 0.0 1.0 0.00 0.00 0.00 100 1013.1
20260904125016 78 0 0.0 1.0 0.00 0.00 0.00 100 1013.0
20260904124813 78 355 0.0 1.0 0.00 0.00 0.00 100 1013.0
20260904124717 78 291 0.0 1.0 0.00 0.00 0.00 100 1013.0
20260904124558 78 287 0.0 1.0 0.00 0.00 0.00 100 1013.0
20260904124457 78 294 1.0 1.0 0.00 0.00 0.00 100 1013.0
20260904124343 78 343 1.0 1.0 0.00 0.00 0.00 100 1013.0
20260904124228 78 17 1.0 1.0 0.00 0.00 0.00 100 1013.0
20260904124128 78 0 1.0 1.0 0.00 0.00 0.00 100 1013.0
20260904124042 78 343 1.0 1.0 0.00 0.00 0.00 100 1013.0
20260904124028 78 22 1.0 1.0 0.00 0.00 0.00 100 1013.0
20260904123928 78 15 1.0 1.0 0.00 0.00 0.00 100 1012.9
20260904123828 78 28 1.0 2.0 0.00 0.00 0.00 100 1012.9
20260904123728 78 58 0.0 2.0 0.00 0.00 0.00 100 1012.9
20260904123613 78 309 0.0 2.0 0.00 0.00 0.00 100 1012.8
20260904123543 78 342 0.0 2.0 0.00 0.00 0.00 100 1012.8
20260904123512 78 6 1.0 2.0 0.00 0.00 0.00 100 1012.8
20260904123359 78 347 1.0 2.0 0.00 0.00 0.00 100 1012.8
20260904123258 78 0 1.0 2.0 0.00 0.00 0.00 100 1012.8
20260904123143 78 0 0.0 2.0 0.00 0.00 0.00 100 1012.8
20260904123042 78 0 0.0 2.0 0.00 0.00 0.00 100 1012.7
20260904123028 78 255 0.0 2.0 0.00 0.00 0.00 100 1012.7
20260904122928 78 341 0.0 2.0 0.00 0.00 0.00 100 1012.7
20260904122820 78 350 0.0 1.0 0.00 0.00 0.00 100 1012.7
20260904122717 78 312 0.0 1.0 0.00 0.00 0.00 100 1012.7
20260904122614 78 9 0.0 1.0 0.00 0.00 0.00 100 1012.7
20260904122534 78 357 0.0 1.0 0.00 0.00 0.00 100 1012.7
20260904122514 78 6 0.0 1.0 0.00 0.00 0.00 100 1012.7
20260904122412 78 159 0.0 1.0 0.00 0.00 0.00 100 1012.7
20260904122311 78 345 0.0 1.0 0.00 0.00 0.00 100 1012.6
20260904122252 78 0 0.0 1.0 0.00 0.00 0.00 100 1012.6
20260904122211 78 322 0.0 1.0 0.00 0.00 0.00 100 1012.6
20260904122139 78 309 0.0 1.0 0.00 0.00 0.00 100 1012.6
20260904122008 78 316 0.0 1.0 0.00 0.00 0.00 100 1012.6
20260904121905 78 301 0.0 1.0 0.00 0.00 0.00 100 1012.6
20260904121802 78 284 0.0 1.0 0.00 0.00 0.00 100 1012.6
20260904121659 78 258 0.0 1.0 0.00 0.00 0.00 100 1012.6
20260904121559 78 357 0.0 1.0 0.00 0.00 0.00 100 1012.6
20260904121530 78 345 0.0 1.0 0.00 0.00 0.00 100 1012.6
20260904121456 78 0 0.0 1.0 0.00 0.00 0.00 100 1012.6
20260904121342 78 298 0.0 1.0 0.00 0.00 0.00 100 1012.6
20260904121241 78 333 0.0 1.0 0.00 0.00 0.00 100 1012.5
20260904121135 78 0 0.0 1.0 0.00 0.00 0.00 100 1012.5
20260904121032 78 0 0.0 1.0 0.00 0.00 0.00 100 1012.5
20260904120906 78 34 0.0 1.0 0.00 0.00 0.00 100 1012.5
20260904120805 78 14 0.0 1.0 0.00 0.00 0.00 100 1012.5
20260904120656 78 0 0.0 1.0 0.00 0.00 0.00 100 1012.5
20260904120550 78 341 0.0 2.0 0.00 0.00 0.00 100 1012.5
20260904120531 78 312 0.0 2.0 0.00 0.00 0.00 100 1012.5
20260904120450 78 0 0.0 2.0 0.00 0.00 0.00 100 1012.5
20260904120333 78 306 0.0 2.0 0.00 0.00 0.00 100 1012.4
20260904120232 78 0 0.0 2.0 0.00 0.00 0.00 100 1012.4
20260904120129 78 0 0.0 2.0 0.00 0.00 0.00 100 1012.4
20260904120029 78 0 0.0 2.0 0.00 0.00 0.00 100 1012.4
20260904115929 78 0 0.0 2.0 0.00 0.00 0.00 100 1012.4
20260904115826 78 0 1.0 2.0 0.00 0.00 0.00 100 1012.4
20260904115726 78 0 1.0 2.0 0.00 0.00 0.00 100 1012.4
20260904115623 78 44 1.0 2.0 0.00 0.00 0.00 100 1012.4
20260904115531 78 326 1.0 2.0 0.00 0.00 0.00 100 1012.4
20260904115523 78 280 1.0 2.0 0.00 0.00 0.00 100 1012.4
20260904115423 78 0 1.0 2.0 0.00 0.00 0.00 100 1012.4
20260904115321 78 349 0.0 2.0 0.00 0.00 0.00 100 1012.4
20260904115220 78 25 0.0 2.0 0.00 0.00 0.00 100 1012.4
20260904115121 78 41 0.0 2.0 0.00 0.00 0.00 100 1012.4
20260904115031 78 24 0.0 2.0 0.00 0.00 0.00 100 1012.4
20260904115020 78 14 0.0 2.0 0.00 0.00 0.00 100 1012.4
20260904114921 78 29 0.0 1.0 0.00 0.00 0.00 100 1012.4
20260904114820 78 11 0.0 1.0 0.00 0.00 0.00 100 1012.4
20260904114717 78 0 0.0 1.0 0.00 0.00 0.00 100 1012.4
20260904114611 78 20 0.0 1.0 0.00 0.00 0.00 100 1012.4
20260904114528 78 63 0.0 1.0 0.00 0.00 0.00 100 1012.4
20260904114512 78 79 0.0 1.0 0.00 0.00 0.00 100 1012.4
20260904114411 78 30 0.0 1.0 0.00 0.00 0.00 100 1012.4
20260904114311 78 16 0.0 1.0 0.00 0.00 0.00 100 1012.4
20260904114211 78 0 0.0 1.0 0.00 0.00 0.00 100 1012.4
20260904114108 78 352 0.0 1.0 0.00 0.00 0.00 100 1012.4
20260904114008 78 0 0.0 1.0 0.00 0.00 0.00 100 1012.4
20260904113900 78 0 0.0 1.0 0.00 0.00 0.00 100 1012.4
20260904113800 78 0 0.0 1.0 0.00 0.00 0.00 100 1012.4
20260904113754 78 346 0.0 2.0 0.00 0.00 0.00 100 1012.5
20260904113656 78 0 0.0 1.0 0.00 0.00 0.00 100 1012.4
20260904113635 78 0 0.0 2.0 0.00 0.00 0.00 100 1012.5
20260904113511 78 46 1.0 3.0 0.00 0.00 0.00 100 1012.4
20260904113457 78 351 0.0 2.0 0.00 0.00 0.00 100 1012.5
20260904113356 78 285 0.0 3.0 0.00 0.00 0.00 100 1012.5
20260904113351 78 0 1.0 3.0 0.00 0.00 0.00 100 1012.5
20260904113141 78 0 1.0 3.0 0.00 0.00 0.00 100 1012.4
20260904113128 78 0 1.0 3.0 0.00 0.00 0.00 100 1012.4
20260904112941 78 0 1.0 3.0 0.00 0.00 0.00 100 1012.4
20260904112826 78 20 1.0 3.0 0.00 0.00 0.00 100 1012.4
20260904112721 78 18 1.0 3.0 0.00 0.00 0.00 100 1012.4
20260904112621 78 6 2.0 3.0 0.00 0.00 0.00 100 1012.4
20260904112518 78 11 2.0 3.0 0.00 0.00 0.00 100 1012.4
20260904112418 78 14 2.0 3.0 0.00 0.00 0.00 100 1012.5
20260904112318 78 40 2.0 3.0 0.00 0.00 0.00 100 1012.5
20260904112239 78 95 2.0 3.0 0.00 0.00 0.00 100 1012.5
20260904112215 78 357 1.0 3.0 0.00 0.00 0.00 100 1012.5
20260904112128 78 54 1.0 3.0 0.00 0.00 0.00 100 1012.5
20260904112012 78 16 2.0 3.0 0.00 0.00 0.00 100 1012.5
20260904111908 78 21 2.0 3.0 0.00 0.00 0.00 100 1012.5
20260904111804 78 23 2.0 3.0 0.00 0.00 0.00 100 1012.5
20260904111703 78 25 1.0 3.0 0.00 0.00 0.00 100 1012.5
20260904111557 78 28 1.0 3.0 0.00 0.00 0.00 100 1012.5
20260904111520 78 30 1.0 3.0 0.00 0.00 0.00 100 1012.5
20260904111454 78 4 1.0 3.0 0.00 0.00 0.00 100 1012.5
20260904111348 78 30 1.0 3.0 0.00 0.00 0.00 100 1012.4
20260904111240 78 29 1.0 3.0 0.00 0.00 0.00 100 1012.4
20260904111140 78 24 1.0 3.0 0.00 0.00 0.00 100 1012.4
20260904111039 78 11 1.0 2.0 0.00 0.00 0.00 100 1012.4
20260904111020 78 19 1.0 2.0 0.00 0.00 0.00 100 1012.4
20260904110936 78 8 0.0 1.0 0.00 0.00 0.00 100 1012.4
20260904110836 78 8 0.0 1.0 0.00 0.00 0.00 100 1012.4
20260904110736 78 333 0.0 1.0 0.00 0.00 0.00 100 1012.4
20260904110636 78 13 0.0 1.0 0.00 0.00 0.00 100 1012.4
20260904110536 78 308 0.0 1.0 0.00 0.00 0.00 100 1012.4
20260904110514 78 278 0.0 1.0 0.00 0.00 0.00 100 1012.4
20260904110433 78 0 0.0 1.0 0.00 0.00 0.00 100 1012.4
20260904110334 78 356 0.0 1.0 0.00 0.00 0.00 100 1012.4
20260904110234 78 345 0.0 1.0 0.00 0.00 0.00 100 1012.4
20260904110130 78 0 0.0 1.0 0.00 0.00 0.00 100 1012.4
20260904110030 78 23 0.0 1.0 0.00 0.00 0.00 100 1012.4
20260904110014 78 20 0.0 1.0 0.00 0.00 0.00 100 1012.4
20260904105930 78 356 0.0 1.0 0.00 0.00 0.00 100 1012.4
20260904105830 78 358 0.0 1.0 0.00 0.00 0.00 100 1012.4
20260904105742 78 15 0.0 1.0 0.00 0.00 0.00 100 1012.4
20260904105727 78 23 0.0 1.0 0.00 0.00 0.00 100 1012.4
20260904105625 78 105 0.0 1.0 0.00 0.00 0.00 100 1012.4
20260904105620 78 15 0.0 1.0 0.00 0.00 0.00 100 1012.4
20260904105409 78 0 0.0 1.0 0.00 0.00 0.00 100 1012.3
20260904105306 78 0 0.0 1.0 0.00 0.00 0.00 100 1012.3
20260904105203 78 331 0.0 1.0 0.00 0.00 0.00 100 1012.3
20260904105103 78 0 0.0 1.0 0.00 0.00 0.00 100 1012.4
20260904105011 78 345 0.0 1.0 0.00 0.00 0.00 100 1012.4
20260904105003 78 233 0.0 1.0 0.00 0.00 0.00 100 1012.4
20260904104857 78 287 0.0 1.0 0.00 0.00 0.00 100 1012.4
20260904104757 78 0 0.0 1.0 0.00 0.00 0.00 100 1012.4
20260904104738 78 359 0.0 1.0 0.00 0.00 0.00 100 1012.3
20260904104657 78 6 0.0 1.0 0.00 0.00 0.00 100 1012.3
20260904104617 78 0 0.0 1.0 0.00 0.00 0.00 100 1012.3
20260904104454 78 0 0.0 1.0 0.00 0.00 0.00 100 1012.3
20260904104351 78 318 0.0 1.0 0.00 0.00 0.00 100 1012.3
20260904104251 78 280 0.0 1.0 0.00 0.00 0.00 100 1012.3
20260904104145 78 0 0.0 1.0 0.00 0.00 0.00 100 1012.3
20260904104045 78 0 0.0 1.0 0.00 0.00 0.00 100 1012.3
20260904104011 78 105 0.0 1.0 0.00 0.00 0.00 100 1012.3
20260904103945 78 0 0.0 1.0 0.00 0.00 0.00 100 1012.3
20260904103846 78 345 0.0 2.0 0.00 0.00 0.00 100 1012.3
20260904103746 78 2 0.0 2.0 0.00 0.00 0.00 100 1012.3
20260904103645 78 0 0.0 2.0 0.00 0.00 0.00 100 1012.3
20260904103542 78 0 0.0 2.0 0.00 0.00 0.00 100 1012.3
20260904103511 78 298 0.0 2.0 0.00 0.00 0.00 100 1012.3
20260904103443 78 0 0.0 2.0 0.00 0.00 0.00 100 1012.3
20260904103337 78 249 1.0 2.0 0.00 0.00 0.00 100 1012.3
20260904103236 78 208 0.0 2.0 0.00 0.00 0.00 100 1012.3
20260904103131 78 0 0.0 2.0 0.00 0.00 0.00 100 1012.3
20260904103028 78 351 0.0 2.0 0.00 0.00 0.00 100 1012.3
20260904103008 78 0 0.0 2.0 0.00 0.00 0.00 99 1012.3
20260904102925 78 278 0.0 2.0 0.00 0.00 0.00 99 1012.3
20260904102820 78 300 0.0 2.0 0.00 0.00 0.00 99 1012.3
20260904102715 78 333 0.0 2.0 0.00 0.00 0.00 99 1012.3
20260904102616 78 310 0.0 2.0 0.00 0.00 0.00 99 1012.3
20260904102516 78 259 0.0 2.0 0.00 0.00 0.00 99 1012.3
20260904102505 78 268 0.0 2.0 0.00 0.00 0.00 99 1012.3
20260904102416 78 279 0.0 1.0 0.00 0.00 0.00 99 1012.3
20260904102315 78 27 0.0 1.0 0.00 0.00 0.00 99 1012.2
20260904102214 78 250 0.0 1.0 0.00 0.00 0.00 99 1012.2
20260904102114 78 4 0.0 1.0 0.00 0.00 0.00 99 1012.2
20260904102014 78 344 0.0 1.0 0.00 0.00 0.00 99 1012.1
20260904102005 78 0 0.0 1.0 0.00 0.00 0.00 99 1012.1
20260904101914 78 244 0.0 1.0 0.00 0.00 0.00 99 1012.1
20260904101814 78 0 0.0 1.0 0.00 0.00 0.00 99 1012.1
20260904101714 78 0 0.0 1.0 0.00 0.00 0.00 99 1012.1
20260904101612 78 0 0.0 1.0 0.00 0.00 0.00 99 1012.1
20260904101510 78 275 0.0 1.0 0.00 0.00 0.00 99 1012.1
20260904101503 78 3 0.0 1.0 0.00 0.00 0.00 99 1012.1
20260904101410 78 0 0.0 1.0 0.00 0.00 0.00 99 1012.1
20260904101309 78 290 0.0 1.0 0.00 0.00 0.00 99 1012.0
20260904101206 78 0 0.0 1.0 0.00 0.00 0.00 99 1012.0
20260904101112 78 289 0.0 1.0 0.00 0.00 0.00 99 1012.0
20260904101007 78 0 0.0 1.0 0.00 0.00 0.00 99 1012.0
20260904100956 78 345 0.0 1.0 0.00 0.00 0.00 99 1012.0
20260904100904 78 284 0.0 1.0 0.00 0.00 0.00 99 1012.0
20260904100801 78 113 0.0 1.0 0.00 0.00 0.00 99 1012.0
20260904100658 78 311 0.0 1.0 0.00 0.00 0.00 99 1012.0
20260904100555 78 0 0.0 1.0 0.00 0.00 0.00 99 1012.0
20260904100451 78 0 0.0 1.0 0.00 0.00 0.00 99 1012.0
20260904100356 78 27 0.0 1.0 0.00 0.00 0.00 99 1012.0
20260904100255 78 0 0.0 1.0 0.00 0.00 0.00 99 1012.0
20260904100155 78 320 0.0 1.0 0.00 0.00 0.00 99 1012.0
20260904100056 78 292 0.0 1.0 0.00 0.00 0.00 99 1012.0
20260904095957 78 334 0.0 1.0 0.00 0.00 0.00 99 1012.0
20260904095951 78 316 0.0 1.0 0.00 0.00 0.00 99 1012.0
20260904095855 78 0 0.0 1.0 0.00 0.00 0.00 99 1011.9
20260904095755 78 0 0.0 1.0 0.00 0.00 0.00 99 1011.9
20260904095712 78 332 0.0 2.0 0.00 0.00 0.00 99 1011.9
20260904095654 78 0 0.0 1.0 0.00 0.00 0.00 99 1011.9
20260904095602 78 0 0.0 1.0 0.00 0.00 0.00 99 1011.9
20260904095557 78 332 0.0 2.0 0.00 0.00 0.00 99 1011.9
20260904095351 78 0 0.0 2.0 0.00 0.00 0.00 99 1011.9
20260904095250 78 317 0.0 2.0 0.00 0.00 0.00 99 1011.9
20260904095147 78 278 0.0 2.0 0.00 0.00 0.00 99 1011.9
20260904095047 78 0 0.0 2.0 0.00 0.00 0.00 99 1011.9
20260904094951 78 357 0.0 2.0 0.00 0.00 0.00 99 1012.0
20260904094947 78 310 0.0 2.0 0.00 0.00 0.00 99 1012.0
20260904094846 78 0 0.0 2.0 0.00 0.00 0.00 99 1011.9
20260904094746 78 0 0.0 2.0 0.00 0.00 0.00 99 1011.9
20260904094646 78 314 0.0 2.0 0.00 0.00 0.00 99 1011.9
20260904094540 78 358 0.0 2.0 0.00 0.00 0.00 99 1011.9
20260904094451 78 322 0.0 1.0 0.00 0.00 0.00 99 1011.8
20260904094440 78 0 0.0 1.0 0.00 0.00 0.00 99 1011.8
20260904094335 78 4 0.0 1.0 0.00 0.00 0.00 99 1011.8
20260904094235 78 348 0.0 1.0 0.00 0.00 0.00 99 1011.8
20260904094131 78 0 0.0 1.0 0.00 0.00 0.00 99 1011.8
20260904094031 78 0 0.0 1.0 0.00 0.00 0.00 99 1011.8
20260904093928 78 0 0.0 1.0 0.00 0.00 0.00 99 1011.8
20260904093825 78 0 0.0 1.0 0.00 0.00 0.00 99 1011.8
20260904093725 78 0 0.0 1.0 0.00 0.00 0.00 99 1011.7
20260904093623 78 8 0.0 1.0 0.00 0.00 0.00 99 1011.7
20260904093522 78 29 0.0 1.0 0.00 0.00 0.00 98 1011.7
20260904093445 78 29 0.0 1.0 0.00 0.00 0.00 98 1011.7
20260904093420 78 33 0.0 1.0 0.00 0.00 0.00 98 1011.7
20260904093321 78 0 0.0 1.0 0.00 0.00 0.00 98 1011.7
20260904093220 78 0 0.0 1.0 0.00 0.00 0.00 98 1011.7
20260904093120 78 0 0.0 1.0 0.00 0.00 0.00 98 1011.7
20260904093017 78 0 0.0 1.0 0.00 0.00 0.00 98 1011.7
20260904092942 78 64 0.0 1.0 0.00 0.00 0.00 98 1011.7
20260904092916 78 12 0.0 1.0 0.00 0.00 0.00 98 1011.7
20260904092815 78 332 0.0 1.0 0.00 0.00 0.00 98 1011.7
20260904092714 78 40 0.0 1.0 0.00 0.00 0.00 98 1011.7
20260904092613 78 354 0.0 1.0 0.00 0.00 0.00 98 1011.7
20260904092513 78 358 0.0 1.0 0.00 0.00 0.00 98 1011.6
20260904092439 78 357 0.0 1.0 0.00 0.00 0.00 98 1011.6
20260904092415 78 272 0.0 1.0 0.00 0.00 0.00 98 1011.6
20260904092310 78 4 0.0 1.0 0.00 0.00 0.00 98 1011.6
20260904092210 78 0 0.0 1.0 0.00 0.00 0.00 98 1011.6
20260904092107 78 0 0.0 1.0 0.00 0.00 0.00 98 1011.6
20260904092005 78 330 0.0 1.0 0.00 0.00 0.00 98 1011.6
20260904091940 78 0 0.0 1.0 0.00 0.00 0.00 98 1011.6
20260904091902 78 320 0.0 1.0 0.00 0.00 0.00 98 1011.6
20260904091759 78 306 0.0 1.0 0.00 0.00 0.00 98 1011.6
20260904091658 78 0 0.0 1.0 0.00 0.00 0.00 98 1011.6
20260904091556 78 357 0.0 1.0 0.00 0.00 0.00 98 1011.6
20260904091452 78 58 0.0 1.0 0.00 0.00 0.00 98 1011.6
20260904091439 78 0 0.0 1.0 0.00 0.00 0.00 98 1011.6
20260904091352 78 128 0.0 1.0 0.00 0.00 0.00 98 1011.6
20260904091253 78 0 0.0 1.0 0.00 0.00 0.00 98 1011.6
20260904091151 78 30 0.0 1.0 0.00 0.00 0.00 98 1011.6
20260904091050 78 0 0.0 1.0 0.00 0.00 0.00 98 1011.6
20260904090950 78 135 0.0 1.0 0.00 0.00 0.00 98 1011.7
20260904090930 78 0 0.0 1.0 0.00 0.00 0.00 98 1011.7
20260904090850 78 32 0.0 1.0 0.00 0.00 0.00 98 1011.7
20260904090741 78 0 0.0 1.0 0.00 0.00 0.00 98 1011.7
20260904090637 78 209 0.0 1.0 0.00 0.00 0.00 97 1011.7
20260904090526 78 0 0.0 1.0 0.00 0.00 0.00 97 1011.7
20260904090430 79 0 0.0 1.0 0.00 0.00 0.00 97 1011.7
20260904090426 79 61 0.0 1.0 0.00 0.00 0.00 97 1011.7
20260904090320 79 38 0.0 1.0 0.00 0.00 0.00 97 1011.8
20260904090213 79 0 0.0 1.0 0.00 0.00 0.00 97 1011.7
20260904090146 79 0 0.0 1.0 0.00 0.00 0.00 97 1011.7
20260904090113 79 0 0.0 1.0 0.00 0.00 0.00 97 1011.7
20260904090033 79 0 0.0 1.0 0.00 0.00 0.00 97 1011.7
20260904085911 79 288 0.0 1.0 0.00 0.00 0.00 97 1011.7
20260904085810 79 0 0.0 1.0 0.00 0.00 0.00 97 1011.7
20260904085711 79 6 0.0 1.0 0.00 0.00 0.00 97 1011.7
20260904085602 79 0 0.0 1.0 0.00 0.00 0.00 97 1011.7
20260904085459 79 297 0.0 1.0 0.00 0.00 0.00 97 1011.7
20260904085428 79 309 0.0 1.0 0.00 0.00 0.00 97 1011.7
20260904085350 79 0 0.0 1.0 0.00 0.00 0.00 97 1011.7
20260904085250 79 261 0.0 1.0 0.00 0.00 0.00 97 1011.7
20260904085147 79 255 0.0 1.0 0.00 0.00 0.00 97 1011.7
20260904085047 79 0 0.0 1.0 0.00 0.00 0.00 97 1011.7
20260904084947 79 348 0.0 1.0 0.00 0.00 0.00 97 1011.7
20260904084928 79 55 0.0 1.0 0.00 0.00 0.00 97 1011.7
20260904084841 79 0 0.0 1.0 0.00 0.00 0.00 96 1011.7
20260904084741 79 0 0.0 1.0 0.00 0.00 0.00 96 1011.7
20260904084648 79 0 0.0 1.0 0.00 0.00 0.00 96 1011.7
20260904084641 79 0 0.0 1.0 0.00 0.00 0.00 96 1011.6
20260904084541 79 0 0.0 1.0 0.00 0.00 0.00 96 1011.6
20260904084531 79 0 0.0 1.0 0.00 0.00 0.00 96 1011.7
20260904084330 79 348 0.0 1.0 0.00 0.00 0.00 96 1011.7
20260904084229 79 0 0.0 1.0 0.00 0.00 0.00 96 1011.7
20260904084129 79 0 0.0 1.0 0.00 0.00 0.00 96 1011.7
20260904084029 79 0 0.0 1.0 0.00 0.00 0.00 96 1011.7
20260904083945 79 322 0.0 1.0 0.00 0.00 0.00 96 1011.7
20260904083923 79 0 0.0 1.0 0.00 0.00 0.00 96 1011.7
20260904083835 79 242 0.0 1.0 0.00 0.00 0.00 96 1011.7
20260904083702 79 0 0.0 1.0 0.00 0.00 0.00 96 1011.7
20260904083621 79 26 0.0 1.0 0.00 0.00 0.00 95 1011.8
20260904083617 79 212 0.0 1.0 0.00 0.00 0.00 96 1011.7
20260904083611 79 0 0.0 1.0 0.00 0.00 0.00 96 1011.7
20260904083357 79 268 0.0 1.0 0.00 0.00 0.00 96 1011.7
20260904083254 79 351 0.0 1.0 0.00 0.00 0.00 96 1011.7
20260904083239 79 0 0.0 1.0 0.00 0.00 0.00 95 1011.8
20260904083051 79 24 0.0 1.0 0.00 0.00 0.00 95 1011.8
20260904083019 79 312 0.0 1.0 0.00 0.00 0.00 95 1011.8
20260904082851 79 0 0.0 1.0 0.00 0.00 0.00 95 1011.8
20260904082748 79 311 0.0 1.0 0.00 0.00 0.00 95 1011.8
20260904082645 79 290 0.0 1.0 0.00 0.00 0.00 95 1011.8
20260904082545 80 0 0.0 1.0 0.00 0.00 0.00 95 1011.8
20260904082445 80 0 0.0 1.0 0.00 0.00 0.00 95 1011.8
20260904082404 80 351 0.0 1.0 0.00 0.00 0.00 95 1011.8
20260904082344 80 0 0.0 1.0 0.00 0.00 0.00 95 1011.8
20260904082244 80 304 0.0 1.0 0.00 0.00 0.00 95 1011.8
20260904082141 80 357 0.0 1.0 0.00 0.00 0.00 95 1011.8
20260904082041 80 0 0.0 1.0 0.00 0.00 0.00 95 1011.8
20260904081939 80 326 0.0 1.0 0.00 0.00 0.00 95 1011.8
20260904081905 80 285 0.0 1.0 0.00 0.00 0.00 95 1011.8
20260904081835 80 10 0.0 1.0 0.00 0.00 0.00 95 1011.8
20260904081724 80 0 0.0 1.0 0.00 0.00 0.00 95 1011.8
20260904081617 80 0 0.0 1.0 0.00 0.00 0.00 95 1011.8
20260904081511 80 358 0.0 1.0 0.00 0.00 0.00 94 1011.8
20260904081409 80 341 0.0 1.0 0.00 0.00 0.00 94 1011.8
20260904081356 80 354 0.0 1.0 0.00 0.00 0.00 94 1011.8
20260904081306 80 307 0.0 1.0 0.00 0.00 0.00 94 1011.8
20260904081206 80 313 0.0 1.0 0.00 0.00 0.00 94 1011.8
20260904081105 80 219 0.0 1.0 0.00 0.00 0.00 94 1011.8
20260904080954 80 26 0.0 1.0 0.00 0.00 0.00 94 1011.8
20260904080854 80 279 0.0 1.0 0.00 0.00 0.00 94 1011.8
20260904080754 80 319 0.0 1.0 0.00 0.00 0.00 94 1011.8
20260904080653 80 129 0.0 1.0 0.00 0.00 0.00 94 1011.8
20260904080553 80 0 0.0 1.0 0.00 0.00 0.00 94 1011.8
20260904080454 80 0 0.0 2.0 0.00 0.00 0.00 94 1011.8
20260904080355 80 0 0.0 2.0 0.00 0.00 0.00 94 1011.8
20260904075936 80 31 0.0 2.0 0.00 0.00 0.00 94 1011.8
20260904075835 80 36 0.0 2.0 0.00 0.00 0.00 94 1011.8
20260904075732 80 0 0.0 2.0 0.00 0.00 0.00 94 1011.8
20260904075627 80 288 0.0 2.0 0.00 0.00 0.00 94 1011.8
20260904075604 80 302 0.0 2.0 0.00 0.00 0.00 94 1011.8
20260904075527 80 20 0.0 2.0 0.00 0.00 0.00 94 1011.8
20260904075424 80 330 0.0 1.0 0.00 0.00 0.00 93 1011.8
20260904075321 80 23 0.0 1.0 0.00 0.00 0.00 93 1011.8
20260904075221 80 0 0.0 1.0 0.00 0.00 0.00 93 1011.8
20260904075118 80 270 0.0 1.0 0.00 0.00 0.00 93 1011.8
20260904075102 80 0 0.0 1.0 0.00 0.00 0.00 93 1011.8
20260904075015 80 0 0.0 1.0 0.00 0.00 0.00 93 1011.8
20260904074915 80 0 0.0 2.0 0.00 0.00 0.00 93 1011.8
20260904074809 80 0 0.0 2.0 0.00 0.00 0.00 93 1011.8
20260904074709 80 315 0.0 2.0 0.00 0.00 0.00 93 1011.8
20260904074609 80 0 0.0 2.0 0.00 0.00 0.00 93 1011.8
20260904074558 80 0 0.0 2.0 0.00 0.00 0.00 93 1011.8
20260904074508 80 330 0.0 2.0 0.00 0.00 0.00 93 1011.8
20260904074406 80 0 0.0 2.0 0.00 0.00 0.00 93 1011.9
20260904074318 80 0 0.0 2.0 0.00 0.00 0.00 93 1011.9
20260904074307 80 0 0.0 2.0 0.00 0.00 0.00 93 1011.9
20260904074210 80 0 0.0 2.0 0.00 0.00 0.00 93 1011.9
20260904074204 80 0 0.0 2.0 0.00 0.00 0.00 93 1011.9
20260904074000 80 0 0.0 2.0 0.00 0.00 0.00 93 1011.9
20260904073900 80 186 0.0 1.0 0.00 0.00 0.00 93 1011.9
20260904073800 80 0 0.0 1.0 0.00 0.00 0.00 93 1011.9
20260904073700 80 0 0.0 1.0 0.00 0.00 0.00 93 1011.9
20260904073600 81 0 0.0 1.0 0.00 0.00 0.00 93 1011.9
20260904073500 81 250 0.0 1.0 0.00 0.00 0.00 93 1011.9
20260904073400 81 0 0.0 1.0 0.00 0.00 0.00 93 1011.9
20260904073302 81 0 0.0 1.0 0.00 0.00 0.00 93 1011.9
20260904073200 81 169 0.0 1.0 0.00 0.00 0.00 93 1011.9
20260904073058 81 0 0.0 1.0 0.00 0.00 0.00 93 1011.9
20260904072957 81 0 0.0 1.0 0.00 0.00 0.00 93 1011.9
20260904072858 81 11 0.0 1.0 0.00 0.00 0.00 93 1011.9
20260904072745 81 0 0.0 2.0 0.00 0.00 0.00 93 1011.9
20260904072640 81 263 0.0 2.0 0.00 0.00 0.00 93 1011.9
20260904072559 81 8 0.0 2.0 0.00 0.00 0.00 93 1011.9
20260904072539 81 343 0.0 2.0 0.00 0.00 0.00 93 1011.9
20260904072439 81 0 0.0 2.0 0.00 0.00 0.00 93 1011.9
20260904072339 81 0 0.0 2.0 0.00 0.00 0.00 93 1011.9
20260904072317 81 17 0.0 2.0 0.00 0.00 0.00 93 1011.9
20260904072240 81 2 0.0 2.0 0.00 0.00 0.00 93 1011.9
20260904072202 81 62 0.0 2.0 0.00 0.00 0.00 93 1011.9
20260904072037 81 358 0.0 2.0 0.00 0.00 0.00 93 1011.9
20260904071930 81 0 0.0 2.0 0.00 0.00 0.00 93 1011.9
20260904071827 81 184 0.0 2.0 0.00 0.00 0.00 93 1011.9
20260904071727 80 0 0.0 2.0 0.00 0.00 0.00 93 1011.9
20260904071627 80 0 0.0 2.0 0.00 0.00 0.00 93 1011.9
20260904071556 80 346 0.0 2.0 0.00 0.00 0.00 93 1011.9
20260904071527 80 39 0.0 2.0 0.00 0.00 0.00 93 1011.9
20260904071427 80 0 0.0 2.0 0.00 0.00 0.00 93 1011.9
20260904071328 80 0 0.0 2.0 0.00 0.00 0.00 93 1011.9
20260904071227 81 0 0.0 2.0 0.00 0.00 0.00 93 1011.9
20260904071124 81 236 0.0 2.0 0.00 0.00 0.00 93 1011.9
20260904071057 81 247 0.0 2.0 0.00 0.00 0.00 93 1011.9
20260904071025 81 0 0.0 2.0 0.00 0.00 0.00 93 1011.9
20260904070922 81 124 0.0 2.0 0.00 0.00 0.00 93 1012.0
20260904070822 81 30 0.0 1.0 0.00 0.00 0.00 93 1012.0
20260904070719 81 346 0.0 1.0 0.00 0.00 0.00 93 1012.0
20260904070617 81 28 0.0 1.0 0.00 0.00 0.00 93 1012.0
20260904070553 81 38 0.0 1.0 0.00 0.00 0.00 93 1012.0
20260904070517 81 0 0.0 1.0 0.00 0.00 0.00 93 1012.1
20260904070416 81 0 0.0 1.0 0.00 0.00 0.00 93 1012.1
20260904070316 81 0 0.0 1.0 0.00 0.00 0.00 93 1012.1
20260904070213 81 282 0.0 1.0 0.00 0.00 0.00 93 1012.1
20260904070109 81 266 0.0 1.0 0.00 0.00 0.00 93 1012.1
20260904070050 81 0 0.0 1.0 0.00 0.00 0.00 93 1012.1
20260904070010 81 0 0.0 1.0 0.00 0.00 0.00 93 1012.1
20260904065907 81 10 0.0 1.0 0.00 0.00 0.00 93 1012.1
20260904065803 81 0 0.0 1.0 0.00 0.00 0.00 93 1012.1
20260904065704 81 0 0.0 1.0 0.00 0.00 0.00 93 1012.1
20260904065601 81 165 0.0 1.0 0.00 0.00 0.00 93 1012.2
20260904065550 81 0 0.0 1.0 0.00 0.00 0.00 93 1012.2
20260904065501 81 0 0.0 1.0 0.00 0.00 0.00 93 1012.2
20260904065358 81 0 0.0 1.0 0.00 0.00 0.00 93 1012.2
20260904065315 81 307 0.0 3.0 0.00 0.00 0.00 93 1012.2
20260904065255 81 290 0.0 2.0 0.00 0.00 0.00 93 1012.2
20260904065156 81 326 0.0 2.0 0.00 0.00 0.00 93 1012.2
20260904065046 81 307 0.0 3.0 0.00 0.00 0.00 93 1012.2
20260904064940 80 336 0.0 3.0 0.00 0.00 0.00 93 1012.1
20260904064839 80 269 0.0 3.0 0.00 0.00 0.00 93 1012.1
20260904064809 80 242 0.0 3.0 0.00 0.00 0.00 94 1012.1
20260904064739 80 0 0.0 3.0 0.00 0.00 0.00 93 1012.1
20260904064653 80 217 0.0 3.0 0.00 0.00 0.00 93 1012.1
20260904064531 80 260 0.0 3.0 0.00 0.00 0.00 94 1012.1
20260904064428 80 0 0.0 3.0 0.00 0.00 0.00 94 1012.1
20260904064325 80 14 0.0 3.0 0.00 0.00 0.00 94 1012.1
20260904064225 80 301 0.0 3.0 0.00 0.00 0.00 94 1012.1
20260904064122 80 0 0.0 3.0 0.00 0.00 0.00 94 1012.1
20260904064048 80 60 0.0 3.0 0.00 0.00 0.00 94 1012.1
20260904064022 80 217 0.0 2.0 0.00 0.00 0.00 94 1012.1
20260904063923 80 97 0.0 2.0 0.00 0.00 0.00 94 1012.1
20260904063823 80 281 0.0 2.0 0.00 0.00 0.00 94 1012.1
20260904063722 80 85 0.0 2.0 0.00 0.00 0.00 95 1012.1
20260904063623 80 267 0.0 2.0 0.00 0.00 0.00 95 1012.1
20260904063548 80 85 0.0 2.0 0.00 0.00 0.00 95 1012.1
20260904063523 80 42 0.0 2.0 0.00 0.00 0.00 95 1012.1
20260904063422 80 225 0.0 2.0 0.00 0.00 0.00 95 1012.1
20260904063322 80 0 0.0 2.0 0.00 0.00 0.00 95 1012.1
20260904063311 80 129 0.0 2.0 0.00 0.00 0.00 95 1012.1
20260904063219 80 2 0.0 2.0 0.00 0.00 0.00 95 1012.1
20260904063153 80 0 0.0 2.0 0.00 0.00 0.00 95 1012.1
20260904063016 80 0 0.0 2.0 0.00 0.00 0.00 95 1012.1
20260904062916 80 130 0.0 2.0 0.00 0.00 0.00 95 1012.1
20260904062817 80 112 0.0 2.0 0.00 0.00 0.00 95 1012.1
20260904062714 80 219 0.0 2.0 0.00 0.00 0.00 95 1012.1
20260904062613 80 352 0.0 2.0 0.00 0.00 0.00 95 1012.1
20260904062548 80 57 0.0 2.0 0.00 0.00 0.00 95 1012.1
20260904062513 80 326 0.0 2.0 0.00 0.00 0.00 95 1012.1
20260904062413 80 0 0.0 2.0 0.00 0.00 0.00 96 1012.1
20260904062311 80 155 0.0 2.0 0.00 0.00 0.00 96 1012.1
20260904062307 80 0 0.0 2.0 0.00 0.00 0.00 96 1012.1
20260904062207 80 332 0.0 2.0 0.00 0.00 0.00 96 1012.1
20260904062153 80 0 0.0 2.0 0.00 0.00 0.00 96 1012.1
20260904062005 80 171 0.0 2.0 0.00 0.00 0.00 96 1012.1
20260904061904 80 300 0.0 2.0 0.00 0.00 0.00 96 1012.1
20260904061801 80 13 0.0 2.0 0.00 0.00 0.00 96 1012.1
20260904061649 80 182 0.0 2.0 0.00 0.00 0.00 96 1012.1
20260904061550 80 50 0.0 2.0 0.00 0.00 0.00 96 1012.1
20260904061450 80 15 0.0 2.0 0.00 0.00 0.00 96 1012.1
20260904061350 80 201 0.0 2.0 0.00 0.00 0.00 96 1012.1
20260904061307 80 0 0.0 1.0 0.00 0.00 0.00 96 1012.1
20260904061249 80 0 0.0 2.0 0.00 0.00 0.00 96 1012.1
20260904061153 80 0 0.0 1.0 0.00 0.00 0.00 96 1012.1
20260904061043 80 0 0.0 1.0 0.00 0.00 0.00 96 1012.1
20260904060943 80 0 0.0 1.0 0.00 0.00 0.00 96 1012.1
20260904060841 80 288 0.0 1.0 0.00 0.00 0.00 96 1012.1
20260904060804 80 318 0.0 1.0 0.00 0.00 0.00 96 1012.2
20260904060738 80 226 0.0 1.0 0.00 0.00 0.00 96 1012.1
20260904060651 80 0 0.0 1.0 0.00 0.00 0.00 96 1012.2
20260904060538 80 173 0.0 1.0 0.00 0.00 0.00 96 1012.2
20260904060438 80 50 0.0 1.0 0.00 0.00 0.00 96 1012.2
20260904060337 80 189 0.0 2.0 0.00 0.00 0.00 96 1012.2
20260904060231 80 0 0.0 2.0 0.00 0.00 0.00 96 1012.2
20260904060132 80 295 0.0 2.0 0.00 0.00 0.00 96 1012.2
20260904060043 80 0 0.0 2.0 0.00 0.00 0.00 96 1012.2
20260904060032 80 23 0.0 2.0 0.00 0.00 0.00 96 1012.2
20260904055929 80 0 0.0 2.0 0.00 0.00 0.00 96 1012.2
20260904055829 80 36 0.0 2.0 0.00 0.00 0.00 96 1012.2
20260904055756 80 337 0.0 2.0 0.00 0.00 0.00 96 1012.2
20260904055726 80 289 0.0 2.0 0.00 0.00 0.00 96 1012.2
20260904055645 80 0 0.0 2.0 0.00 0.00 0.00 96 1012.2
20260904055526 80 0 0.0 2.0 0.00 0.00 0.00 96 1012.2
20260904055423 80 294 0.0 2.0 0.00 0.00 0.00 96 1012.2
20260904055320 80 290 0.0 1.0 0.00 0.00 0.00 96 1012.2
20260904055220 80 40 0.0 1.0 0.00 0.00 0.00 96 1012.2
20260904055120 80 0 0.0 1.0 0.00 0.00 0.00 96 1012.3
20260904055030 80 260 0.0 1.0 0.00 0.00 0.00 96 1012.3
20260904055018 80 277 0.0 1.0 0.00 0.00 0.00 96 1012.3
20260904054917 80 0 0.0 1.0 0.00 0.00 0.00 96 1012.3
20260904054814 80 0 0.0 1.0 0.00 0.00 0.00 96 1012.3
20260904054714 80 155 0.0 1.0 0.00 0.00 0.00 96 1012.3
20260904054614 80 0 0.0 1.0 0.00 0.00 0.00 96 1012.3
20260904054508 80 0 0.0 1.0 0.00 0.00 0.00 96 1012.3
20260904054408 80 0 0.0 1.0 0.00 0.00 0.00 96 1012.3
20260904054302 80 0 0.0 1.0 0.00 0.00 0.00 96 1012.3
20260904054246 80 0 0.0 1.0 0.00 0.00 0.00 96 1012.3
20260904054200 80 12 0.0 1.0 0.00 0.00 0.00 96 1012.3
20260904054133 80 0 0.0 1.0 0.00 0.00 0.00 96 1012.3
20260904053958 80 0 0.0 1.0 0.00 0.00 0.00 96 1012.3
20260904053856 80 96 0.0 1.0 0.00 0.00 0.00 96 1012.3
20260904053755 80 0 0.0 1.0 0.00 0.00 0.00 96 1012.3
20260904053747 80 0 0.0 1.0 0.00 0.00 0.00 96 1012.3
20260904053650 80 67 0.0 1.0 0.00 0.00 0.00 96 1012.3
20260904053630 80 296 0.0 1.0 0.00 0.00 0.00 96 1012.3
20260904053447 80 34 0.0 1.0 0.00 0.00 0.00 96 1012.3
20260904053344 80 0 0.0 1.0 0.00 0.00 0.00 96 1012.3
20260904053235 80 1 0.0 1.0 0.00 0.00 0.00 96 1012.3
20260904053126 80 5 0.0 1.0 0.00 0.00 0.00 96 1012.3
20260904053026 80 349 0.0 1.0 0.00 0.00 0.00 96 1012.4
20260904052925 80 246 0.0 1.0 0.00 0.00 0.00 96 1012.4
20260904052820 80 0 0.0 1.0 0.00 0.00 0.00 96 1012.4
20260904052719 80 0 0.0 1.0 0.00 0.00 0.00 96 1012.3
20260904052617 80 0 0.0 1.0 0.00 0.00 0.00 96 1012.3
20260904052525 80 0 0.0 1.0 0.00 0.00 0.00 96 1012.3
20260904052516 80 271 0.0 1.0 0.00 0.00 0.00 96 1012.3
20260904052415 80 272 0.0 1.0 0.00 0.00 0.00 96 1012.3
20260904052314 80 133 0.0 1.0 0.00 0.00 0.00 96 1012.3
20260904052241 80 295 0.0 1.0 0.00 0.00 0.00 96 1012.3
20260904052214 80 325 0.0 1.0 0.00 0.00 0.00 96 1012.3
20260904052127 80 0 0.0 1.0 0.00 0.00 0.00 96 1012.3
20260904052014 80 0 0.0 1.0 0.00 0.00 0.00 96 1012.3
20260904051908 80 0 0.0 1.0 0.00 0.00 0.00 96 1012.3
20260904051808 80 329 0.0 1.0 0.00 0.00 0.00 96 1012.3
20260904051706 80 334 0.0 1.0 0.00 0.00 0.00 96 1012.3
20260904051610 80 0 0.0 1.0 0.00 0.00 0.00 96 1012.4
20260904051522 80 38 0.0 1.0 0.00 0.00 0.00 96 1012.4
20260904051506 80 251 0.0 1.0 0.00 0.00 0.00 96 1012.4
20260904051405 80 0 0.0 1.0 0.00 0.00 0.00 96 1012.4
20260904051305 80 0 0.0 1.0 0.00 0.00 0.00 96 1012.4
20260904051206 80 179 0.0 1.0 0.00 0.00 0.00 95 1012.4
20260904051105 80 43 0.0 1.0 0.00 0.00 0.00 95 1012.4
20260904051022 80 351 0.0 1.0 0.00 0.00 0.00 95 1012.4
20260904051005 80 271 0.0 1.0 0.00 0.00 0.00 95 1012.4
20260904050906 80 0 0.0 1.0 0.00 0.00 0.00 96 1012.4
20260904050759 80 208 0.0 1.0 0.00 0.00 0.00 96 1012.4
20260904050700 80 0 0.0 2.0 0.00 0.00 0.00 96 1012.4
20260904050522 80 0 0.0 2.0 0.00 0.00 0.00 96 1012.3
20260904050450 80 0 0.0 2.0 0.00 0.00 0.00 96 1012.3
20260904050350 80 313 0.0 2.0 0.00 0.00 0.00 96 1012.3
20260904050250 80 0 0.0 2.0 0.00 0.00 0.00 95 1012.3
20260904050151 80 52 0.0 2.0 0.00 0.00 0.00 95 1012.3
20260904050051 80 20 1.0 2.0 0.00 0.00 0.00 95 1012.3
20260904050022 80 0 1.0 2.0 0.00 0.00 0.00 95 1012.3
20260904045951 80 0 1.0 2.0 0.00 0.00 0.00 96 1012.3
20260904045851 80 94 1.0 2.0 0.00 0.00 0.00 96 1012.3
20260904045753 80 204 1.0 3.0 0.00 0.00 0.00 96 1012.3
20260904045748 80 51 1.0 3.0 0.00 0.00 0.00 96 1012.3
20260904045645 80 90 1.0 3.0 0.00 0.00 0.00 96 1012.3
20260904045628 80 74 1.0 3.0 0.00 0.00 0.00 96 1012.3
20260904045439 80 91 1.0 3.0 0.00 0.00 0.00 96 1012.3
20260904045339 80 80 1.0 3.0 0.00 0.00 0.00 96 1012.3
20260904045247 80 91 1.0 3.0 0.00 0.00 0.00 96 1012.3
20260904045239 80 112 1.0 3.0 0.00 0.00 0.00 96 1012.3
20260904045136 80 61 1.0 3.0 0.00 0.00 0.00 96 1012.3
20260904045128 80 0 1.0 3.0 0.00 0.00 0.00 96 1012.3
20260904044933 80 77 1.0 3.0 0.00 0.00 0.00 96 1012.3
20260904044830 80 99 1.0 3.0 0.00 0.00 0.00 96 1012.3
20260904044730 80 58 1.0 2.0 0.00 0.00 0.00 96 1012.3
20260904044630 80 105 0.0 2.0 0.00 0.00 0.00 96 1012.4
20260904044530 80 58 0.0 2.0 0.00 0.00 0.00 96 1012.4
20260904044520 80 90 0.0 2.0 0.00 0.00 0.00 96 1012.4
20260904044430 80 70 0.0 2.0 0.00 0.00 0.00 96 1012.4
20260904044329 80 40 0.0 2.0 0.00 0.00 0.00 96 1012.4
20260904044237 80 60 0.0 1.0 0.00 0.00 0.00 96 1012.4
20260904044227 80 63 0.0 2.0 0.00 0.00 0.00 96 1012.4
20260904044128 80 80 0.0 1.0 0.00 0.00 0.00 96 1012.4
20260904044122 80 56 0.0 1.0 0.00 0.00 0.00 96 1012.4
20260904043919 80 0 0.0 1.0 0.00 0.00 0.00 96 1012.4
20260904043820 80 329 0.0 1.0 0.00 0.00 0.00 96 1012.4
20260904043719 80 25 0.0 1.0 0.00 0.00 0.00 96 1012.4
20260904043620 80 0 0.0 2.0 0.00 0.00 0.00 96 1012.4
20260904043516 80 354 0.0 2.0 0.00 0.00 0.00 96 1012.4
20260904043419 80 0 0.0 2.0 0.00 0.00 0.00 96 1012.4
20260904043319 80 206 0.0 2.0 0.00 0.00 0.00 96 1012.4
20260904043219 80 0 0.0 2.0 0.00 0.00 0.00 96 1012.4
20260904043118 80 46 0.0 2.0 0.00 0.00 0.00 96 1012.4
20260904043018 80 0 0.0 2.0 0.00 0.00 0.00 96 1012.4
20260904042809 80 0 0.0 2.0 0.00 0.00 0.00 96 1012.3
20260904042709 80 97 0.0 2.0 0.00 0.00 0.00 96 1012.3
20260904042609 80 0 0.0 2.0 0.00 0.00 0.00 96 1012.3
20260904042508 80 223 0.0 2.0 0.00 0.00 0.00 96 1012.3
20260904042357 80 89 0.0 2.0 0.00 0.00 0.00 96 1012.3
20260904042257 80 0 0.0 2.0 0.00 0.00 0.00 96 1012.3
20260904042157 80 0 0.0 2.0 0.00 0.00 0.00 96 1012.3
20260904042057 80 22 0.0 2.0 0.00 0.00 0.00 96 1012.3
20260904041958 80 36 0.0 2.0 0.00 0.00 0.00 96 1012.3
20260904041954 80 139 0.0 2.0 0.00 0.00 0.00 96 1012.3
20260904041854 80 0 0.0 2.0 0.00 0.00 0.00 96 1012.3
20260904041755 80 322 0.0 2.0 0.00 0.00 0.00 96 1012.3
20260904041655 80 0 0.0 2.0 0.00 0.00 0.00 96 1012.3
20260904041555 80 0 0.0 2.0 0.00 0.00 0.00 95 1012.3
20260904041454 80 0 0.0 2.0 0.00 0.00 0.00 95 1012.3
20260904041355 80 245 0.0 2.0 0.00 0.00 0.00 95 1012.3
20260904041254 80 131 0.0 2.0 0.00 0.00 0.00 95 1012.3
20260904041154 80 0 0.0 1.0 0.00 0.00 0.00 95 1012.4
20260904041054 80 188 0.0 1.0 0.00 0.00 0.00 95 1012.4
20260904040955 80 123 0.0 1.0 0.00 0.00 0.00 95 1012.4
20260904040854 80 0 0.0 1.0 0.00 0.00 0.00 95 1012.4
20260904040754 80 0 0.0 1.0 0.00 0.00 0.00 95 1012.4
20260904040648 80 0 0.0 1.0 0.00 0.00 0.00 95 1012.4
20260904040548 80 250 0.0 1.0 0.00 0.00 0.00 95 1012.4
20260904040456 80 0 0.0 1.0 0.00 0.00 0.00 95 1012.4
20260904040446 80 352 0.0 1.0 0.00 0.00 0.00 95 1012.4
20260904040436 80 222 0.0 2.0 0.00 0.00 0.00 95 1012.4
20260904040334 80 19 0.0 1.0 0.00 0.00 0.00 95 1012.4
20260904040319 80 0 0.0 1.0 0.00 0.00 0.00 95 1012.4
20260904040133 80 0 0.0 1.0 0.00 0.00 0.00 95 1012.4
20260904040059 80 0 0.0 1.0 0.00 0.00 0.00 95 1012.4
20260904035931 80 256 0.0 2.0 0.00 0.00 0.00 95 1012.4
20260904035831 80 0 0.0 2.0 0.00 0.00 0.00 95 1012.4
20260904035730 80 0 0.0 2.0 0.00 0.00 0.00 95 1012.4
20260904035630 80 0 0.0 2.0 0.00 0.00 0.00 95 1012.4
20260904035530 80 0 0.0 2.0 0.00 0.00 0.00 95 1012.4
20260904035431 80 0 0.0 2.0 0.00 0.00 0.00 95 1012.4
20260904035328 80 0 1.0 2.0 0.00 0.00 0.00 95 1012.4
20260904035228 80 0 1.0 2.0 0.00 0.00 0.00 95 1012.4
20260904035128 80 0 1.0 3.0 0.00 0.00 0.00 95 1012.3
20260904035028 80 89 1.0 3.0 0.00 0.00 0.00 95 1012.3
20260904034950 80 0 1.0 3.0 0.00 0.00 0.00 95 1012.3
20260904034927 80 83 1.0 3.0 0.00 0.00 0.00 95 1012.3
20260904034827 80 69 1.0 3.0 0.00 0.00 0.00 95 1012.3
20260904034725 80 73 1.0 3.0 0.00 0.00 0.00 95 1012.3
20260904034624 80 97 1.0 3.0 0.00 0.00 0.00 95 1012.3
20260904034521 80 84 2.0 3.0 0.00 0.00 0.00 95 1012.3
20260904034447 80 93 2.0 3.0 0.00 0.00 0.00 94 1012.3
20260904034422 80 96 2.0 3.0 0.00 0.00 0.00 94 1012.3
20260904034319 80 65 2.0 3.0 0.00 0.00 0.00 94 1012.3
20260904034216 80 71 2.0 3.0 0.00 0.00 0.00 94 1012.3
20260904034116 80 112 2.0 3.0 0.00 0.00 0.00 94 1012.3
20260904034016 80 81 2.0 3.0 0.00 0.00 0.00 94 1012.3
20260904033948 80 101 2.0 3.0 0.00 0.00 0.00 94 1012.3
20260904033913 80 87 2.0 3.0 0.00 0.00 0.00 94 1012.3
20260904033813 80 94 1.0 3.0 0.00 0.00 0.00 94 1012.3
20260904033713 80 96 1.0 3.0 0.00 0.00 0.00 94 1012.4
20260904033610 80 63 1.0 3.0 0.00 0.00 0.00 94 1012.4
20260904033510 80 100 1.0 3.0 0.00 0.00 0.00 94 1012.4
20260904033445 80 106 1.0 3.0 0.00 0.00 0.00 94 1012.4
20260904033407 80 109 1.0 3.0 0.00 0.00 0.00 94 1012.4
20260904033307 80 117 1.0 3.0 0.00 0.00 0.00 94 1012.4
20260904033201 80 69 1.0 3.0 0.00 0.00 0.00 94 1012.4
20260904033101 80 106 1.0 2.0 0.00 0.00 0.00 94 1012.4
20260904033001 80 97 0.0 2.0 0.00 0.00 0.00 94 1012.4
20260904032938 80 49 0.0 2.0 0.00 0.00 0.00 94 1012.4
20260904032919 81 10 0.0 1.0 0.00 0.00 0.00 93 1012.4
20260904032858 80 74 0.0 2.0 0.00 0.00 0.00 94 1012.4
20260904032805 80 55 0.0 2.0 0.00 0.00 0.00 93 1012.4
20260904032653 81 74 0.0 2.0 0.00 0.00 0.00 93 1012.4
20260904032554 81 70 0.0 1.0 0.00 0.00 0.00 93 1012.4
20260904032544 81 0 0.0 1.0 0.00 0.00 0.00 93 1012.4
20260904032351 81 355 0.0 1.0 0.00 0.00 0.00 93 1012.4
20260904032251 81 0 0.0 1.0 0.00 0.00 0.00 93 1012.4
20260904032201 81 285 0.0 2.0 0.00 0.00 0.00 93 1012.4
20260904032151 81 0 0.0 1.0 0.00 0.00 0.00 93 1012.4
20260904032051 81 250 0.0 2.0 0.00 0.00 0.00 93 1012.4
20260904032042 81 0 0.0 2.0 0.00 0.00 0.00 93 1012.4
20260904031851 81 302 0.0 2.0 0.00 0.00 0.00 93 1012.4
20260904031750 81 336 0.0 2.0 0.00 0.00 0.00 93 1012.4
20260904031651 81 226 0.0 2.0 0.00 0.00 0.00 93 1012.4
20260904031551 81 269 0.0 2.0 0.00 0.00 0.00 92 1012.5
20260904031451 81 210 0.0 2.0 0.00 0.00 0.00 92 1012.5
20260904031435 81 0 0.0 2.0 0.00 0.00 0.00 92 1012.5
20260904031351 81 0 0.0 2.0 0.00 0.00 0.00 92 1012.5
20260904031251 81 100 0.0 2.0 0.00 0.00 0.00 92 1012.5
20260904031151 81 0 0.0 2.0 0.00 0.00 0.00 92 1012.5
20260904031051 81 62 0.0 2.0 0.00 0.00 0.00 92 1012.5
20260904030951 81 306 0.0 2.0 0.00 0.00 0.00 92 1012.5
20260904030934 81 0 0.0 2.0 0.00 0.00 0.00 92 1012.5
20260904030850 81 0 1.0 3.0 0.00 0.00 0.00 92 1012.5
20260904030748 81 0 1.0 3.0 0.00 0.00 0.00 92 1012.5
20260904030648 81 323 1.0 3.0 0.00 0.00 0.00 92 1012.5
20260904030548 81 322 1.0 3.0 0.00 0.00 0.00 92 1012.5
20260904030447 81 0 1.0 3.0 0.00 0.00 0.00 92 1012.5
20260904030434 81 127 1.0 3.0 0.00 0.00 0.00 92 1012.5
20260904030348 81 101 1.0 3.0 0.00 0.00 0.00 92 1012.5
20260904030249 81 75 1.0 3.0 0.00 0.00 0.00 92 1012.5
20260904030148 81 98 1.0 3.0 0.00 0.00 0.00 92 1012.4
20260904030048 81 53 1.0 3.0 0.00 0.00 0.00 92 1012.4
20260904025948 81 0 1.0 3.0 0.00 0.00 0.00 92 1012.4
20260904025933 81 93 1.0 3.0 0.00 0.00 0.00 92 1012.4
20260904025848 81 46 1.0 3.0 0.00 0.00 0.00 92 1012.4
20260904025748 81 79 1.0 3.0 0.00 0.00 0.00 92 1012.4
20260904025645 81 45 1.0 3.0 0.00 0.00 0.00 92 1012.4
20260904025545 81 60 1.0 2.0 0.00 0.00 0.00 92 1012.4
20260904025445 81 88 0.0 2.0 0.00 0.00 0.00 92 1012.4
20260904025431 81 89 0.0 2.0 0.00 0.00 0.00 92 1012.4
20260904025346 81 17 0.0 2.0 0.00 0.00 0.00 92 1012.4
20260904025243 81 85 0.0 2.0 0.00 0.00 0.00 92 1012.4
20260904025140 81 137 0.0 2.0 0.00 0.00 0.00 92 1012.4
20260904025039 81 62 0.0 2.0 0.00 0.00 0.00 92 1012.4
20260904024939 81 23 0.0 2.0 0.00 0.00 0.00 92 1012.3
20260904024927 81 0 0.0 2.0 0.00 0.00 0.00 92 1012.3
20260904024834 81 76 0.0 2.0 0.00 0.00 0.00 92 1012.3
20260904024733 81 80 0.0 2.0 0.00 0.00 0.00 92 1012.3
20260904024628 81 19 0.0 2.0 0.00 0.00 0.00 92 1012.3
20260904024527 81 0 0.0 2.0 0.00 0.00 0.00 92 1012.3
20260904024427 81 0 1.0 3.0 0.00 0.00 0.00 92 1012.3
20260904024328 81 148 1.0 3.0 0.00 0.00 0.00 92 1012.3
20260904024222 81 58 1.0 3.0 0.00 0.00 0.00 91 1012.3
20260904024118 81 0 1.0 3.0 0.00 0.00 0.00 92 1012.3
20260904024006 81 0 1.0 3.0 0.00 0.00 0.00 92 1012.3
20260904023927 81 0 1.0 3.0 0.00 0.00 0.00 92 1012.3
20260904023906 81 86 1.0 3.0 0.00 0.00 0.00 92 1012.3
20260904023804 81 110 1.0 3.0 0.00 0.00 0.00 92 1012.3
20260904023658 81 75 1.0 3.0 0.00 0.00 0.00 91 1012.3
20260904023557 81 64 1.0 3.0 0.00 0.00 0.00 91 1012.3
20260904023455 81 50 1.0 3.0 0.00 0.00 0.00 91 1012.3
20260904023425 81 83 1.0 2.0 0.00 0.00 0.00 91 1012.3
20260904023354 81 82 1.0 2.0 0.00 0.00 0.00 91 1012.3
20260904023255 81 63 1.0 2.0 0.00 0.00 0.00 91 1012.3
20260904023155 81 0 1.0 2.0 0.00 0.00 0.00 91 1012.3
20260904023052 81 359 1.0 2.0 0.00 0.00 0.00 91 1012.3
20260904022952 81 11 1.0 2.0 0.00 0.00 0.00 91 1012.3
20260904022921 81 37 1.0 2.0 0.00 0.00 0.00 91 1012.3
20260904022849 81 56 1.0 2.0 0.00 0.00 0.00 91 1012.3
20260904022748 81 344 1.0 2.0 0.00 0.00 0.00 91 1012.3
20260904022645 81 68 1.0 2.0 0.00 0.00 0.00 91 1012.3
20260904022542 81 52 1.0 2.0 0.00 0.00 0.00 91 1012.2
20260904022443 81 36 0.0 2.0 0.00 0.00 0.00 91 1012.2
20260904022421 81 38 0.0 2.0 0.00 0.00 0.00 91 1012.2
20260904022343 81 37 0.0 2.0 0.00 0.00 0.00 91 1012.2
20260904022240 81 69 0.0 2.0 0.00 0.00 0.00 91 1012.2
20260904022140 81 14 0.0 2.0 0.00 0.00 0.00 91 1012.2
20260904022041 81 99 0.0 2.0 0.00 0.00 0.00 91 1012.2
20260904021940 81 75 0.0 2.0 0.00 0.00 0.00 91 1012.2
20260904021922 81 25 0.0 2.0 0.00 0.00 0.00 91 1012.2
20260904021837 82 0 0.0 2.0 0.00 0.00 0.00 91 1012.2
20260904021734 82 90 0.0 2.0 0.00 0.00 0.00 91 1012.2
20260904021634 82 35 0.0 4.0 0.00 0.00 0.00 91 1012.2
20260904021533 82 0 1.0 4.0 0.00 0.00 0.00 91 1012.2
20260904021430 82 0 1.0 4.0 0.00 0.00 0.00 91 1012.2
20260904021422 82 73 1.0 4.0 0.00 0.00 0.00 91 1012.2
20260904021331 82 25 1.0 4.0 0.00 0.00 0.00 90 1012.2
20260904021227 82 46 1.0 4.0 0.00 0.00 0.00 90 1012.1
20260904021151 82 316 1.0 4.0 0.00 0.00 0.00 90 1012.1
20260904021128 82 281 1.0 4.0 0.00 0.00 0.00 90 1012.1
20260904021032 82 24 1.0 4.0 0.00 0.00 0.00 90 1012.1
20260904021026 82 316 1.0 4.0 0.00 0.00 0.00 90 1012.1
20260904020816 82 0 1.0 4.0 0.00 0.00 0.00 90 1012.0
20260904020716 82 105 1.0 4.0 0.00 0.00 0.00 90 1012.0
20260904020616 82 213 1.0 3.0 0.00 0.00 0.00 90 1012.0
20260904020513 82 61 1.0 3.0 0.00 0.00 0.00 90 1012.0
20260904020421 82 72 1.0 3.0 0.00 0.00 0.00 90 1012.0
20260904020405 82 73 1.0 3.0 0.00 0.00 0.00 90 1011.9
20260904020301 82 115 1.0 3.0 0.00 0.00 0.00 90 1011.9
20260904020201 82 62 1.0 4.0 0.00 0.00 0.00 90 1011.9
20260904020146 82 64 1.0 4.0 0.00 0.00 0.00 90 1011.9
20260904020101 82 0 1.0 4.0 0.00 0.00 0.00 90 1011.9
20260904020027 82 77 1.0 4.0 0.00 0.00 0.00 90 1011.9
20260904015902 82 78 1.0 4.0 0.00 0.00 0.00 90 1011.9
20260904015801 82 0 2.0 4.0 0.00 0.00 0.00 90 1011.9
20260904015659 82 91 2.0 4.0 0.00 0.00 0.00 90 1011.8
20260904015558 82 64 2.0 4.0 0.00 0.00 0.00 90 1011.8
20260904015458 82 156 2.0 4.0 0.00 0.00 0.00 90 1011.8
20260904015423 82 83 2.0 4.0 0.00 0.00 0.00 90 1011.8
20260904015355 82 120 2.0 4.0 0.00 0.00 0.00 90 1011.8
20260904015255 82 108 2.0 4.0 0.00 0.00 0.00 90 1011.8
20260904015155 82 98 2.0 4.0 0.00 0.00 0.00 90 1011.8
20260904015055 82 61 2.0 4.0 0.00 0.00 0.00 90 1011.8
20260904014946 82 116 2.0 4.0 0.00 0.00 0.00 90 1011.8
20260904014920 82 95 2.0 4.0 0.00 0.00 0.00 90 1011.8
20260904014843 82 111 2.0 4.0 0.00 0.00 0.00 90 1011.8
20260904014743 82 96 2.0 4.0 0.00 0.00 0.00 89 1011.7
20260904014640 82 64 2.0 4.0 0.00 0.00 0.00 89 1011.7
20260904014540 82 75 2.0 3.0 0.00 0.00 0.00 89 1011.7
20260904014437 82 97 1.0 3.0 0.00 0.00 0.00 89 1011.7
20260904014421 82 98 1.0 3.0 0.00 0.00 0.00 89 1011.7
20260904014332 82 49 1.0 3.0 0.00 0.00 0.00 89 1011.7
20260904014229 82 67 1.0 3.0 0.00 0.00 0.00 89 1011.7
20260904014129 82 77 1.0 3.0 0.00 0.00 0.00 89 1011.7
20260904014029 82 100 1.0 3.0 0.00 0.00 0.00 89 1011.7
20260904013926 82 86 1.0 3.0 0.00 0.00 0.00 89 1011.7
20260904013916 82 95 1.0 3.0 0.00 0.00 0.00 89 1011.7
20260904013823 82 108 1.0 3.0 0.00 0.00 0.00 89 1011.7
20260904013723 82 72 1.0 3.0 0.00 0.00 0.00 89 1011.7
20260904013620 82 88 1.0 3.0 0.00 0.00 0.00 89 1011.7
20260904013517 82 63 1.0 3.0 0.00 0.00 0.00 88 1011.7
20260904013416 82 158 1.0 4.0 0.00 0.00 0.00 88 1011.7
20260904013407 82 88 1.0 4.0 0.00 0.00 0.00 88 1011.7
20260904013311 82 90 1.0 4.0 0.00 0.00 0.00 88 1011.7
20260904013211 82 76 1.0 4.0 0.00 0.00 0.00 88 1011.7
20260904013110 82 0 1.0 4.0 0.00 0.00 0.00 88 1011.7
20260904013010 82 78 1.0 4.0 0.00 0.00 0.00 88 1011.7
20260904012907 83 59 1.0 4.0 0.00 0.00 0.00 88 1011.6
20260904012756 83 64 1.0 5.0 0.00 0.00 0.00 88 1011.6
20260904012653 83 52 1.0 5.0 0.00 0.00 0.00 88 1011.6
20260904012553 83 70 1.0 5.0 0.00 0.00 0.00 88 1011.6
20260904012446 83 66 1.0 5.0 0.00 0.00 0.00 88 1011.6
20260904012404 83 79 1.0 5.0 0.00 0.00 0.00 88 1011.6
20260904012343 83 99 1.0 5.0 0.00 0.00 0.00 88 1011.6
20260904012241 83 84 1.0 5.0 0.00 0.00 0.00 88 1011.6
20260904012141 83 233 1.0 5.0 0.00 0.00 0.00 88 1011.6
20260904012126 83 70 2.0 5.0 0.00 0.00 0.00 88 1011.6
20260904012041 83 55 1.0 5.0 0.00 0.00 0.00 88 1011.6
20260904012010 83 106 1.0 5.0 0.00 0.00 0.00 88 1011.6
20260904011841 83 6 2.0 5.0 0.00 0.00 0.00 88 1011.5
20260904011835 83 91 2.0 5.0 0.00 0.00 0.00 88 1011.6
20260904011735 83 48 2.0 5.0 0.00 0.00 0.00 88 1011.6
20260904011724 83 71 2.0 5.0 0.00 0.00 0.00 88 1011.5
20260904011531 83 98 2.0 5.0 0.00 0.00 0.00 88 1011.5
20260904011509 83 77 2.0 5.0 0.00 0.00 0.00 88 1011.5
20260904011331 83 74 2.0 5.0 0.00 0.00 0.00 88 1011.5
20260904011225 83 64 2.0 5.0 0.00 0.00 0.00 88 1011.5
20260904011126 83 24 2.0 5.0 0.00 0.00 0.00 88 1011.5
20260904011026 83 91 2.0 6.0 0.00 0.00 0.00 88 1011.5
20260904010926 83 76 2.0 6.0 0.00 0.00 0.00 88 1011.4
20260904010859 83 50 2.0 6.0 0.00 0.00 0.00 88 1011.4
20260904010826 83 80 2.0 6.0 0.00 0.00 0.00 88 1011.4
20260904010726 83 104 2.0 6.0 0.00 0.00 0.00 88 1011.4
20260904010626 83 74 2.0 6.0 0.00 0.00 0.00 87 1011.4
20260904010617 83 98 2.0 6.0 0.00 0.00 0.00 87 1011.4
20260904010523 83 78 2.0 6.0 0.00 0.00 0.00 87 1011.4
20260904010504 83 85 2.0 6.0 0.00 0.00 0.00 87 1011.4
20260904010323 83 93 2.0 6.0 0.00 0.00 0.00 87 1011.4
20260904010223 83 105 2.0 6.0 0.00 0.00 0.00 87 1011.4
20260904010123 83 120 2.0 6.0 0.00 0.00 0.00 87 1011.4
20260904010023 83 86 2.0 6.0 0.00 0.00 0.00 87 1011.4
20260904005921 83 98 2.0 6.0 0.00 0.00 0.00 87 1011.5
20260904005859 83 100 2.0 5.0 0.00 0.00 0.00 87 1011.5
20260904005820 83 84 2.0 5.0 0.00 0.00 0.00 87 1011.4
20260904005717 83 91 2.0 5.0 0.00 0.00 0.00 87 1011.5
20260904005620 83 92 2.0 5.0 0.00 0.00 0.00 87 1011.4
20260904005616 83 109 2.0 5.0 0.00 0.00 0.00 87 1011.4
20260904005515 83 67 2.0 5.0 0.00 0.00 0.00 87 1011.4
20260904005504 83 99 2.0 5.0 0.00 0.00 0.00 87 1011.4
20260904005308 83 87 2.0 5.0 0.00 0.00 0.00 87 1011.4
20260904005208 83 105 2.0 5.0 0.00 0.00 0.00 87 1011.4
20260904005108 83 63 2.0 5.0 0.00 0.00 0.00 87 1011.4
20260904005010 83 105 2.0 5.0 0.00 0.00 0.00 87 1011.4
20260904004900 83 106 2.0 5.0 0.00 0.00 0.00 87 1011.4
20260904004853 83 76 2.0 5.0 0.00 0.00 0.00 87 1011.4
20260904004753 83 71 2.0 5.0 0.00 0.00 0.00 87 1011.4
20260904004654 83 132 2.0 5.0 0.00 0.00 0.00 86 1011.4
20260904004554 83 59 2.0 5.0 0.00 0.00 0.00 86 1011.4
20260904004453 83 349 2.0 5.0 0.00 0.00 0.00 86 1011.4
20260904004359 83 94 2.0 5.0 0.00 0.00 0.00 86 1011.3
20260904004350 83 83 2.0 5.0 0.00 0.00 0.00 86 1011.3
20260904004250 83 87 2.0 5.0 0.00 0.00 0.00 86 1011.3
20260904004150 84 0 2.0 5.0 0.00 0.00 0.00 86 1011.3
20260904004050 84 90 2.0 5.0 0.00 0.00 0.00 86 1011.3
20260904003950 84 88 2.0 5.0 0.00 0.00 0.00 86 1011.3
20260904003859 84 123 2.0 5.0 0.00 0.00 0.00 86 1011.3
20260904003850 84 115 2.0 5.0 0.00 0.00 0.00 86 1011.3
20260904003744 84 73 3.0 5.0 0.00 0.00 0.00 86 1011.3
20260904003644 84 112 3.0 5.0 0.00 0.00 0.00 86 1011.3
20260904003541 84 111 3.0 5.0 0.00 0.00 0.00 86 1011.3
20260904003438 84 74 3.0 5.0 0.00 0.00 0.00 86 1011.3
20260904003353 84 74 2.0 5.0 0.00 0.00 0.00 86 1011.3
20260904003338 84 104 2.0 5.0 0.00 0.00 0.00 86 1011.3
20260904003238 84 38 2.0 5.0 0.00 0.00 0.00 86 1011.3
20260904003135 84 61 2.0 5.0 0.00 0.00 0.00 86 1011.3
20260904003032 84 63 2.0 5.0 0.00 0.00 0.00 86 1011.3
20260904002932 84 68 2.0 5.0 0.00 0.00 0.00 86 1011.4
20260904002854 84 114 2.0 6.0 0.00 0.00 0.00 85 1011.4
20260904002833 84 109 2.0 6.0 0.00 0.00 0.00 85 1011.4
20260904002729 84 71 2.0 6.0 0.00 0.00 0.00 85 1011.4
20260904002623 84 106 2.0 6.0 0.00 0.00 0.00 85 1011.4
20260904002613 84 88 3.0 6.0 0.00 0.00 0.00 85 1011.4
20260904002518 84 81 2.0 6.0 0.00 0.00 0.00 85 1011.4
20260904002456 84 100 3.0 6.0 0.00 0.00 0.00 85 1011.4
20260904002311 84 87 3.0 6.0 0.00 0.00 0.00 85 1011.4
20260904002208 84 96 3.0 6.0 0.00 0.00 0.00 85 1011.4
20260904002108 84 114 3.0 7.0 0.00 0.00 0.00 85 1011.4
20260904002008 84 139 3.0 7.0 0.00 0.00 0.00 85 1011.4
20260904001908 84 93 3.0 7.0 0.00 0.00 0.00 85 1011.4
20260904001850 84 85 3.0 7.0 0.00 0.00 0.00 85 1011.4
20260904001809 84 76 3.0 7.0 0.00 0.00 0.00 85 1011.5
20260904001709 84 60 3.0 7.0 0.00 0.00 0.00 85 1011.5
20260904001612 84 79 3.0 7.0 0.00 0.00 0.00 85 1011.5
20260904001606 84 99 3.0 7.0 0.00 0.00 0.00 85 1011.5
20260904001506 84 61 3.0 7.0 0.00 0.00 0.00 85 1011.5
20260904001453 84 101 3.0 7.0 0.00 0.00 0.00 85 1011.5
20260904001259 84 97 3.0 7.0 0.00 0.00 0.00 85 1011.5
20260904001154 84 66 2.0 7.0 0.00 0.00 0.00 85 1011.6
20260904001051 84 115 2.0 6.0 0.00 0.00 0.00 86 1011.7
20260904000948 84 101 2.0 5.0 0.00 0.00 0.00 86 1011.7
20260904000844 84 106 2.0 6.0 0.00 0.00 0.00 86 1011.7
20260904000745 84 128 2.0 6.0 0.00 0.00 0.00 86 1011.7
20260904000642 84 84 2.0 6.0 0.00 0.00 0.00 86 1011.7
20260904000605 84 84 3.0 7.0 0.00 0.00 0.00 86 1011.7
20260904000541 84 90 2.0 6.0 0.00 0.00 0.00 86 1011.7
20260904000450 84 76 3.0 7.0 0.00 0.00 0.00 86 1011.7
20260904000340 84 100 3.0 7.0 0.00 0.00 0.00 86 1011.7
20260904000236 84 81 3.0 7.0 0.00 0.00 0.00 85 1011.7
20260904000133 84 145 3.0 7.0 0.00 0.00 0.00 85 1011.7
20260904000105 85 92 3.0 7.0 0.00 0.00 0.00 85 1011.7
20260904000033 84 109 3.0 7.0 0.00 0.00 0.00 85 1011.7
20260903235948 84 72 3.0 7.0 0.00 0.00 0.00 85 1011.7
20260903235833 85 90 3.0 7.0 0.00 0.00 0.00 85 1011.7
20260903235734 85 114 3.0 7.0 0.00 0.00 0.00 85 1011.7
20260903235633 85 85 3.0 7.0 0.00 0.00 0.00 85 1011.7
20260903235612 85 104 3.0 7.0 0.00 0.00 0.00 85 1011.6
20260903235533 85 96 3.0 7.0 0.00 0.00 0.00 85 1011.7
20260903235445 85 104 3.0 7.0 0.00 0.00 0.00 85 1011.6
20260903235333 85 99 3.0 7.0 0.00 0.00 0.00 85 1011.6
20260903235233 85 78 3.0 7.0 0.00 0.00 0.00 85 1011.6
20260903235133 85 84 3.0 7.0 0.00 0.00 0.00 85 1011.6
20260903235033 85 122 3.0 7.0 0.00 0.00 0.00 85 1011.6
20260903234932 85 124 3.0 6.0 0.00 0.00 0.00 85 1011.6
20260903234842 85 138 3.0 6.0 0.00 0.00 0.00 85 1011.7
20260903234830 85 75 3.0 6.0 0.00 0.00 0.00 85 1011.7
20260903234730 85 76 3.0 6.0 0.00 0.00 0.00 85 1011.7
20260903234631 85 77 3.0 6.0 0.00 0.00 0.00 85 1011.7
20260903234527 85 75 3.0 6.0 0.00 0.00 0.00 85 1011.7
20260903234427 85 88 2.0 6.0 0.00 0.00 0.00 85 1011.7
20260903234339 85 85 2.0 6.0 0.00 0.00 0.00 85 1011.7
20260903234328 85 60 2.0 6.0 0.00 0.00 0.00 85 1011.7
20260903234222 85 192 2.0 6.0 0.00 0.00 0.00 84 1011.7
20260903234122 85 123 2.0 6.0 0.00 0.00 0.00 84 1011.7
20260903234059 85 100 2.0 6.0 0.00 0.00 0.00 84 1011.7
20260903234023 85 129 2.0 6.0 0.00 0.00 0.00 84 1011.7
20260903233945 85 120 2.0 6.0 0.00 0.00 0.00 84 1011.7
20260903233823 85 84 2.0 6.0 0.00 0.00 0.00 84 1011.7
20260903233723 85 83 2.0 6.0 0.00 0.00 0.00 84 1011.7
20260903233623 85 111 2.0 4.0 0.00 0.00 0.00 84 1011.7
20260903233523 85 64 2.0 4.0 0.00 0.00 0.00 84 1011.7
20260903233423 85 79 2.0 4.0 0.00 0.00 0.00 84 1011.6
20260903233340 85 73 2.0 4.0 0.00 0.00 0.00 84 1011.6
20260903233323 85 68 2.0 4.0 0.00 0.00 0.00 84 1011.6
20260903233222 85 116 2.0 5.0 0.00 0.00 0.00 84 1011.6
20260903233123 85 139 2.0 5.0 0.00 0.00 0.00 84 1011.6
20260903233022 85 74 2.0 5.0 0.00 0.00 0.00 84 1011.6
20260903232923 85 90 2.0 5.0 0.00 0.00 0.00 83 1011.6
20260903232839 85 70 2.0 5.0 0.00 0.00 0.00 83 1011.6
20260903232823 85 70 2.0 5.0 0.00 0.00 0.00 83 1011.6
20260903232722 85 80 2.0 5.0 0.00 0.00 0.00 83 1011.6
20260903232622 85 100 2.0 5.0 0.00 0.00 0.00 83 1011.6
20260903232600 85 65 2.0 5.0 0.00 0.00 0.00 83 1011.5
20260903232519 85 133 2.0 5.0 0.00 0.00 0.00 83 1011.5
20260903232438 85 77 2.0 5.0 0.00 0.00 0.00 83 1011.5
20260903232319 85 87 2.0 5.0 0.00 0.00 0.00 83 1011.5
20260903232216 85 78 2.0 5.0 0.00 0.00 0.00 83 1011.5
20260903232116 85 77 2.0 5.0 0.00 0.00 0.00 83 1011.5
20260903232053 85 114 2.0 5.0 0.00 0.00 0.00 83 1011.5
20260903232015 85 85 2.0 5.0 0.00 0.00 0.00 83 1011.5
20260903231932 85 102 2.0 5.0 0.00 0.00 0.00 83 1011.5
20260903231813 85 71 2.0 5.0 0.00 0.00 0.00 83 1011.5
20260903231713 85 101 2.0 5.0 0.00 0.00 0.00 82 1011.4
20260903231613 85 74 2.0 6.0 0.00 0.00 0.00 82 1011.4
20260903231545 85 39 2.0 6.0 0.00 0.00 0.00 82 1011.4
20260903231513 85 103 2.0 6.0 0.00 0.00 0.00 82 1011.4
20260903231429 85 79 2.0 6.0 0.00 0.00 0.00 82 1011.4
20260903231313 85 131 2.0 6.0 0.00 0.00 0.00 82 1011.4
20260903231212 85 31 2.0 6.0 0.00 0.00 0.00 82 1011.4
20260903231114 85 89 2.0 6.0 0.00 0.00 0.00 82 1011.4
20260903231014 85 87 2.0 6.0 0.00 0.00 0.00 82 1011.4
20260903230911 85 102 2.0 6.0 0.00 0.00 0.00 82 1011.4
20260903230824 85 82 2.0 6.0 0.00 0.00 0.00 82 1011.4
20260903230815 85 60 2.0 6.0 0.00 0.00 0.00 82 1011.4
20260903230811 85 78 2.0 6.0 0.00 0.00 0.00 82 1011.4
20260903230711 85 131 2.0 6.0 0.00 0.00 0.00 82 1011.4
20260903230659 85 92 2.0 5.0 0.00 0.00 0.00 82 1011.4
20260903230502 85 91 2.0 5.0 0.00 0.00 0.00 82 1011.4
20260903230431 85 110 2.0 6.0 0.00 0.00 0.00 82 1011.4
20260903230302 85 94 2.0 6.0 0.00 0.00 0.00 82 1011.4
20260903230202 85 83 2.0 6.0 0.00 0.00 0.00 82 1011.4
20260903230059 85 77 2.0 6.0 0.00 0.00 0.00 82 1011.4
20260903225959 85 99 2.0 6.0 0.00 0.00 0.00 82 1011.4
20260903225900 85 60 2.0 6.0 0.00 0.00 0.00 82 1011.4
20260903225824 85 74 2.0 6.0 0.00 0.00 0.00 82 1011.4
20260903225759 85 89 2.0 6.0 0.00 0.00 0.00 82 1011.4
20260903225659 84 89 2.0 6.0 0.00 0.00 0.00 82 1011.4
20260903225556 84 115 2.0 6.0 0.00 0.00 0.00 82 1011.4
20260903225550 84 46 3.0 8.0 0.00 0.00 0.00 82 1011.4
20260903225456 84 73 3.0 6.0 0.00 0.00 0.00 82 1011.4
20260903225431 84 110 3.0 8.0 0.00 0.00 0.00 82 1011.4
20260903225256 84 105 3.0 8.0 0.00 0.00 0.00 83 1011.4
20260903225157 84 41 3.0 8.0 0.00 0.00 0.00 83 1011.4
20260903225056 84 92 3.0 8.0 0.00 0.00 0.00 83 1011.4
20260903224956 84 122 2.0 8.0 0.00 0.00 0.00 83 1011.4
20260903224854 84 71 2.0 8.0 0.00 0.00 0.00 84 1011.4
20260903224825 84 112 2.0 8.0 0.00 0.00 0.00 84 1011.4
20260903224754 83 65 2.0 8.0 0.00 0.00 0.00 84 1011.4
20260903224653 83 80 2.0 8.0 0.00 0.00 0.00 85 1011.4
20260903224550 83 71 2.0 8.0 0.00 0.00 0.00 85 1011.4
20260903224450 83 112 2.0 8.0 0.00 0.00 0.00 86 1011.4
20260903224350 83 94 1.0 5.0 0.00 0.00 0.00 86 1011.4
20260903224323 83 80 1.0 4.0 0.00 0.00 0.00 86 1011.4
20260903224250 83 34 1.0 3.0 0.00 0.00 0.00 86 1011.4
20260903224147 83 348 1.0 3.0 0.00 0.00 0.00 85 1011.5
20260903224047 83 80 1.0 2.0 0.00 0.00 0.00 85 1011.5
20260903223944 83 77 1.0 2.0 0.00 0.00 0.00 85 1011.5
20260903223844 83 17 1.0 2.0 0.00 0.00 0.00 85 1011.5
20260903223824 83 28 1.0 2.0 0.00 0.00 0.00 85 1011.5
20260903223745 83 42 1.0 2.0 0.00 0.00 0.00 85 1011.5
20260903223645 83 55 1.0 2.0 0.00 0.00 0.00 85 1011.5
20260903223544 83 20 1.0 3.0 0.00 0.00 0.00 85 1011.6
20260903223535 83 55 1.0 2.0 0.00 0.00 0.00 85 1011.5
20260903223435 83 0 1.0 3.0 0.00 0.00 0.00 85 1011.5
20260903223429 83 10 1.0 3.0 0.00 0.00 0.00 85 1011.5
20260903223235 83 60 1.0 3.0 0.00 0.00 0.00 85 1011.6
20260903223135 83 117 1.0 3.0 0.00 0.00 0.00 85 1011.6
20260903223036 83 0 1.0 3.0 0.00 0.00 0.00 85 1011.6
20260903222927 83 316 1.0 3.0 0.00 0.00 0.00 85 1011.6
20260903222829 83 44 1.0 3.0 0.00 0.00 0.00 85 1011.7
20260903222824 83 28 1.0 3.0 0.00 0.00 0.00 85 1011.7
20260903222726 83 345 1.0 3.0 0.00 0.00 0.00 85 1011.7
20260903222627 83 16 1.0 3.0 0.00 0.00 0.00 85 1011.7
20260903222524 83 12 1.0 4.0 0.00 0.00 0.00 85 1011.7
20260903222424 83 291 1.0 4.0 0.00 0.00 0.00 85 1011.8
20260903222324 83 302 1.0 4.0 0.00 0.00 0.00 85 1011.8
20260903222221 83 332 1.0 5.0 0.00 0.00 0.00 85 1011.8
20260903222118 83 107 2.0 5.0 0.00 0.00 0.00 85 1011.8
20260903222018 83 292 2.0 5.0 0.00 0.00 0.00 85 1011.8
20260903221915 83 236 2.0 6.0 0.00 0.00 0.00 84 1011.9
20260903221820 84 266 2.0 6.0 0.00 0.00 0.00 84 1011.9
20260903221812 84 283 2.0 6.0 0.00 0.00 0.00 84 1011.9
20260903221712 84 198 2.0 6.0 0.00 0.00 0.00 84 1011.9
20260903221608 84 243 2.0 6.0 0.00 0.00 0.00 84 1011.9
20260903221509 85 270 2.0 6.0 0.00 0.00 0.00 83 1012.0
20260903221406 85 226 2.0 6.0 0.00 0.00 0.00 83 1012.0
20260903221316 85 215 2.0 6.0 0.00 0.00 0.00 82 1012.0
20260903221303 85 253 1.0 6.0 0.00 0.00 0.00 82 1012.0
20260903221203 85 240 1.0 6.0 0.00 0.00 0.00 82 1012.0
20260903221056 86 262 1.0 6.0 0.00 0.00 0.00 80 1012.0
20260903220951 86 236 1.0 6.0 0.00 0.00 0.00 80 1012.0
20260903220848 86 263 1.0 6.0 0.00 0.00 0.00 81 1011.9
20260903220817 86 241 1.0 3.0 0.00 0.00 0.00 81 1011.9
20260903220748 86 254 1.0 3.0 0.00 0.00 0.00 81 1011.9
20260903220647 86 0 1.0 4.0 0.00 0.00 0.00 81 1011.9
20260903220547 86 301 1.0 4.0 0.00 0.00 0.00 81 1011.9
20260903220445 86 2 1.0 4.0 0.00 0.00 0.00 81 1011.9
20260903220344 86 0 1.0 4.0 0.00 0.00 0.00 81 1011.9
20260903220316 86 280 1.0 4.0 0.00 0.00 0.00 81 1011.9
20260903220243 86 260 1.0 4.0 0.00 0.00 0.00 81 1011.9
20260903220142 86 53 1.0 4.0 0.00 0.00 0.00 80 1012.0
20260903220043 86 3 1.0 4.0 0.00 0.00 0.00 80 1012.0
20260903215939 86 12 1.0 4.0 0.00 0.00 0.00 80 1012.0
20260903215839 86 91 2.0 5.0 0.00 0.00 0.00 80 1012.0
20260903215814 86 0 2.0 5.0 0.00 0.00 0.00 80 1012.0
20260903215739 86 104 2.0 5.0 0.00 0.00 0.00 80 1012.0
20260903215639 86 62 2.0 5.0 0.00 0.00 0.00 80 1012.0
20260903215539 86 341 2.0 5.0 0.00 0.00 0.00 80 1012.0
20260903215431 86 58 2.0 6.0 0.00 0.00 0.00 79 1012.0
20260903215330 86 0 2.0 6.0 0.00 0.00 0.00 79 1012.0
20260903215310 86 36 2.0 6.0 0.00 0.00 0.00 79 1012.0
20260903215306 87 332 2.0 4.0 0.00 0.00 0.00 77 1012.4
20260903215257 86 30 2.0 3.0 0.00 0.00 0.00 79 1012.5
20260903215253 86 50 2.0 4.0 0.00 0.00 0.00 79 1012.5
20260903215249 86 25 2.0 4.0 0.00 0.00 0.00 79 1012.5
20260903215244 86 28 2.0 4.0 0.00 0.00 0.00 79 1012.5
20260903215241 86 7 2.0 5.0 0.00 0.00 0.00 79 1012.5
20260903215236 86 18 2.0 5.0 0.00 0.00 0.00 79 1012.5
20260903215232 86 83 2.0 6.0 0.00 0.00 0.00 79 1012.0
20260903215227 86 99 2.0 5.0 0.00 0.00 0.00 79 1012.5
20260903215222 86 44 3.0 6.0 0.00 0.00 0.00 79 1012.5
20260903215218 86 356 3.0 6.0 0.00 0.00 0.00 79 1012.5
20260903215214 86 23 3.0 6.0 0.00 0.00 0.00 79 1012.5
20260903215210 86 47 3.0 6.0 0.00 0.00 0.00 79 1012.5
20260903215206 86 42 3.0 6.0 0.00 0.00 0.00 79 1012.5
20260903215202 87 40 3.0 6.0 0.00 0.00 0.00 78 1012.4
20260903215158 87 41 3.0 6.0 0.00 0.00 0.00 78 1012.4
20260903215153 87 73 3.0 6.0 0.00 0.00 0.00 78 1012.4
20260903215145 87 4 3.0 6.0 0.00 0.00 0.00 78 1012.4
20260903215141 87 351 2.0 6.0 0.00 0.00 0.00 77 1012.4
20260903215137 87 21 2.0 6.0 0.00 0.00 0.00 77 1012.4
20260903215133 86 35 2.0 6.0 0.00 0.00 0.00 79 1012.0
20260903215127 87 39 2.0 5.0 0.00 0.00 0.00 77 1012.4
20260903215123 87 12 2.0 5.0 0.00 0.00 0.00 77 1012.4
20260903215119 87 21 2.0 4.0 0.00 0.00 0.00 77 1012.4
20260903215115 86 34 2.0 6.0 0.00 0.00 0.00 80 1012.0
20260903215005 87 39 2.0 4.0 0.00 0.00 0.00 77 1012.4
20260903215001 87 24 2.0 4.0 0.00 0.00 0.00 76 1012.2
20260903214956 86 2 2.0 6.0 0.00 0.00 0.00 80 1012.1
20260903214952 86 13 2.0 6.0 0.00 0.00 0.00 81 1012.1
20260903214948 86 5 2.0 6.0 0.00 0.00 0.00 81 1012.1
20260903214944 86 356 2.0 6.0 0.00 0.00 0.00 81 1012.1
20260903214940 86 25 2.0 6.0 0.00 0.00 0.00 81 1012.0
20260903214936 86 36 3.0 6.0 0.00 0.00 0.00 81 1012.0
20260903214931 86 10 2.0 6.0 0.00 0.00 0.00 80 1012.0
20260903214926 86 39 3.0 6.0 0.00 0.00 0.00 80 1012.0
20260903214922 86 49 3.0 6.0 0.00 0.00 0.00 80 1012.0
20260903214918 86 35 3.0 6.0 0.00 0.00 0.00 80 1012.1
20260903214914 86 32 2.0 6.0 0.00 0.00 0.00 80 1012.1
20260903214909 86 36 2.0 6.0 0.00 0.00 0.00 80 1012.1
20260903214905 86 31 2.0 6.0 0.00 0.00 0.00 80 1012.1
20260903214901 86 30 2.0 6.0 0.00 0.00 0.00 80 1012.2
20260903214857 86 339 2.0 5.0 0.00 0.00 0.00 80 1012.2
20260903214853 86 13 2.0 5.0 0.00 0.00 0.00 80 1012.2
20260903214845 86 23 2.0 4.0 0.00 0.00 0.00 80 1012.2
20260903214841 86 21 2.0 4.0 0.00 0.00 0.00 80 1012.2
20260903214836 86 32 2.0 4.0 0.00 0.00 0.00 80 1012.2
20260903214832 86 2 2.0 6.0 0.00 0.00 0.00 80 1012.0
20260903214827 86 29 2.0 4.0 0.00 0.00 0.00 80 1012.2
20260903214822 86 40 2.0 4.0 0.00 0.00 0.00 79 1012.2
20260903214814 86 3 2.0 4.0 0.00 0.00 0.00 79 1012.2
20260903214810 86 342 2.0 6.0 0.00 0.00 0.00 80 1012.0
20260903214805 86 42 2.0 6.0 0.00 0.00 0.00 80 1012.0
20260903210433 87 8 2.0 4.0 0.00 0.00 0.00 76 1012.2
20260903210331 87 53 2.0 4.0 0.00 0.00 0.00 76 1012.2
20260903210230 87 19 2.0 4.0 0.00 0.00 0.00 76 1012.2
20260903210223 87 351 2.0 6.0 0.00 0.00 0.00 76 1012.2
20260903210116 87 43 2.0 6.0 0.00 0.00 0.00 76 1012.2
20260903210016 87 53 2.0 6.0 0.00 0.00 0.00 76 1012.2
20260903205916 87 51 2.0 6.0 0.00 0.00 0.00 76 1012.2
20260903205816 87 50 2.0 6.0 0.00 0.00 0.00 76 1012.3
20260903205730 87 33 2.0 6.0 0.00 0.00 0.00 76 1012.3
20260903205713 87 41 2.0 6.0 0.00 0.00 0.00 76 1012.3
20260903205613 87 72 2.0 6.0 0.00 0.00 0.00 76 1012.3
20260903205513 87 56 2.0 6.0 0.00 0.00 0.00 76 1012.3
20260903205410 87 31 2.0 6.0 0.00 0.00 0.00 76 1012.3
20260903205306 87 98 2.0 11.0 0.00 0.00 0.00 76 1012.4
20260903205227 87 99 2.0 11.0 0.00 0.00 0.00 76 1012.4
20260903205205 87 82 2.0 11.0 0.00 0.00 0.00 76 1012.4
20260903205101 87 61 3.0 11.0 0.00 0.00 0.00 75 1012.4
20260903204958 87 37 3.0 11.0 0.00 0.00 0.00 75 1012.4
20260903204858 87 71 3.0 11.0 0.00 0.00 0.00 75 1012.4
20260903204758 87 30 3.0 11.0 0.00 0.00 0.00 75 1012.4
20260903204727 87 34 3.0 11.0 0.00 0.00 0.00 75 1012.4
20260903204658 87 36 3.0 11.0 0.00 0.00 0.00 75 1012.4
20260903204556 87 25 3.0 11.0 0.00 0.00 0.00 75 1012.4
20260903204452 87 38 3.0 11.0 0.00 0.00 0.00 75 1012.4
20260903204352 87 35 4.0 11.0 0.00 0.00 0.00 75 1012.4
20260903204252 87 9 4.0 10.0 0.00 0.00 0.00 75 1012.4
20260903204225 87 36 3.0 9.0 0.00 0.00 0.00 75 1012.3
20260903204152 87 46 3.0 9.0 0.00 0.00 0.00 75 1012.3
20260903204052 87 37 3.0 6.0 0.00 0.00 0.00 75 1012.3
20260903203952 87 47 3.0 6.0 0.00 0.00 0.00 75 1012.3
20260903203849 87 20 3.0 6.0 0.00 0.00 0.00 75 1012.3
20260903203746 87 43 3.0 6.0 0.00 0.00 0.00 75 1012.3
20260903203724 87 352 3.0 6.0 0.00 0.00 0.00 75 1012.3
20260903203646 87 27 3.0 6.0 0.00 0.00 0.00 75 1012.3
20260903203546 87 64 3.0 6.0 0.00 0.00 0.00 75 1012.3
20260903203441 87 9 2.0 6.0 0.00 0.00 0.00 75 1012.2
20260903203341 87 29 2.0 6.0 0.00 0.00 0.00 75 1012.2
20260903203240 87 43 2.0 8.0 0.00 0.00 0.00 75 1012.2
20260903203224 87 36 2.0 8.0 0.00 0.00 0.00 74 1012.2
20260903203216 87 48 3.0 8.0 0.00 0.00 0.00 75 1012.0
20260903203141 87 30 2.0 8.0 0.00 0.00 0.00 74 1012.2
20260903203059 87 26 2.0 8.0 0.00 0.00 0.00 74 1012.2
20260903202931 87 38 3.0 8.0 0.00 0.00 0.00 75 1012.1
20260903202835 87 33 3.0 8.0 0.00 0.00 0.00 75 1012.0
20260903202830 87 21 3.0 8.0 0.00 0.00 0.00 75 1012.0
20260903202632 87 59 3.0 8.0 0.00 0.00 0.00 75 1012.0
20260903202529 87 83 4.0 8.0 0.00 0.00 0.00 74 1011.9
20260903202429 87 25 4.0 8.0 0.00 0.00 0.00 74 1011.9
20260903202327 88 36 4.0 8.0 0.00 0.00 0.00 74 1011.9
20260903202226 88 26 4.0 8.0 0.00 0.00 0.00 74 1011.9
20260903202125 88 13 4.0 8.0 0.00 0.00 0.00 74 1012.0
20260903202025 88 41 4.0 8.0 0.00 0.00 0.00 74 1012.0
20260903201926 88 43 4.0 8.0 0.00 0.00 0.00 73 1012.0
20260903201822 88 36 4.0 8.0 0.00 0.00 0.00 73 1012.0
20260903201720 88 33 4.0 8.0 0.00 0.00 0.00 73 1012.0
20260903201614 88 113 4.0 8.0 0.00 0.00 0.00 72 1012.0
20260903201513 88 3 4.0 9.0 0.00 0.00 0.00 72 1012.0
20260903201414 88 12 3.0 9.0 0.00 0.00 0.00 71 1012.0
20260903201314 89 47 3.0 9.0 0.00 0.00 0.00 69 1011.9
20260903201221 89 305 3.0 9.0 0.00 0.00 0.00 69 1011.9
20260903201202 89 80 3.0 9.0 0.00 0.00 0.00 69 1011.9
20260903201059 89 53 3.0 9.0 0.00 0.00 0.00 69 1011.9
20260903200956 89 26 3.0 9.0 0.00 0.00 0.00 68 1011.9
20260903200850 89 52 3.0 9.0 0.00 0.00 0.00 68 1011.9
20260903200750 89 50 3.0 9.0 0.00 0.00 0.00 67 1011.9
20260903200719 89 28 3.0 9.0 0.00 0.00 0.00 66 1011.9
20260903200650 89 46 3.0 9.0 0.00 0.00 0.00 66 1011.9
20260903200540 89 37 3.0 9.0 0.00 0.00 0.00 66 1011.8
20260903200437 89 212 3.0 7.0 0.00 0.00 0.00 66 1011.9
20260903200334 89 29 3.0 7.0 0.00 0.00 0.00 66 1011.9
20260903200235 89 61 3.0 7.0 0.00 0.00 0.00 66 1011.9
20260903200215 90 69 3.0 7.0 0.00 0.00 0.00 66 1012.0
20260903200132 90 73 3.0 7.0 0.00 0.00 0.00 66 1012.0
20260903200029 90 46 3.0 7.0 0.00 0.00 0.00 66 1012.0
20260903195929 90 42 3.0 7.0 0.00 0.00 0.00 67 1012.0
20260903195829 90 44 4.0 7.0 0.00 0.00 0.00 67 1012.0
20260903195727 90 43 4.0 7.0 0.00 0.00 0.00 68 1011.9
20260903195715 90 27 4.0 8.0 0.00 0.00 0.00 68 1011.9
20260903195627 90 30 4.0 8.0 0.00 0.00 0.00 68 1011.9
20260903195527 90 123 4.0 8.0 0.00 0.00 0.00 68 1011.9
20260903195426 90 45 4.0 8.0 0.00 0.00 0.00 67 1011.9
20260903195326 90 40 4.0 8.0 0.00 0.00 0.00 67 1011.9
20260903195210 90 86 4.0 8.0 0.00 0.00 0.00 67 1011.9
20260903195123 90 103 4.0 8.0 0.00 0.00 0.00 67 1011.9
20260903195020 90 90 4.0 8.0 0.00 0.00 0.00 67 1011.9
20260903194920 90 92 3.0 8.0 0.00 0.00 0.00 67 1011.9
20260903194820 90 129 3.0 8.0 0.00 0.00 0.00 67 1012.0
20260903194718 91 98 3.0 8.0 0.00 0.00 0.00 67 1012.1
20260903194710 91 116 3.0 8.0 0.00 0.00 0.00 67 1012.1
20260903194617 91 47 3.0 8.0 0.00 0.00 0.00 67 1012.1
20260903194511 91 79 3.0 8.0 0.00 0.00 0.00 67 1012.2
20260903194411 91 60 2.0 8.0 0.00 0.00 0.00 67 1012.2
20260903194311 91 91 2.0 7.0 0.00 0.00 0.00 67 1012.2
20260903194212 91 83 2.0 7.0 0.00 0.00 0.00 67 1012.4
20260903194207 91 79 2.0 7.0 0.00 0.00 0.00 67 1012.4
20260903194111 91 351 3.0 7.0 0.00 0.00 0.00 67 1012.4
20260903194005 91 86 3.0 9.0 0.00 0.00 0.00 67 1012.4
20260903193903 91 19 3.0 9.0 0.00 0.00 0.00 67 1012.4
20260903193802 91 215 3.0 9.0 0.00 0.00 0.00 67 1012.4
20260903193707 91 125 3.0 9.0 0.00 0.00 0.00 67 1012.5
20260903193641 91 19 3.0 9.0 0.00 0.00 0.00 67 1012.5
20260903193541 91 47 3.0 9.0 0.00 0.00 0.00 67 1012.6
20260903193438 91 90 4.0 9.0 0.00 0.00 0.00 67 1012.6
20260903193338 91 133 4.0 11.0 0.00 0.00 0.00 67 1012.6
20260903193238 92 126 4.0 11.0 0.00 0.00 0.00 66 1012.6
20260903193207 92 104 4.0 11.0 0.00 0.00 0.00 66 1012.6
20260903193138 92 97 4.0 11.0 0.00 0.00 0.00 66 1012.6
20260903193039 92 52 4.0 11.0 0.00 0.00 0.00 66 1012.6
20260903192939 92 118 4.0 11.0 0.00 0.00 0.00 65 1012.3
20260903192832 92 106 4.0 11.0 0.00 0.00 0.00 65 1012.3
20260903192732 92 44 4.0 11.0 0.00 0.00 0.00 65 1012.3
20260903192706 92 56 4.0 11.0 0.00 0.00 0.00 65 1012.3
20260903192632 92 43 4.0 11.0 0.00 0.00 0.00 65 1012.3
20260903192529 92 53 5.0 11.0 0.00 0.00 0.00 65 1012.3
20260903192429 93 76 5.0 11.0 0.00 0.00 0.00 64 1012.1
20260903192329 93 89 4.0 9.0 0.00 0.00 0.00 64 1012.1
20260903192228 93 130 4.0 8.0 0.00 0.00 0.00 64 1012.1
20260903192207 93 105 4.0 8.0 0.00 0.00 0.00 64 1012.1
20260903192128 93 60 4.0 8.0 0.00 0.00 0.00 64 1012.0
20260903192028 93 31 4.0 8.0 0.00 0.00 0.00 64 1012.1
20260903191927 92 46 4.0 8.0 0.00 0.00 0.00 63 1012.1
20260903191824 92 120 4.0 9.0 0.00 0.00 0.00 63 1012.1
20260903191723 92 49 4.0 9.0 0.00 0.00 0.00 63 1012.1
20260903191707 92 97 4.0 9.0 0.00 0.00 0.00 63 1012.1
20260903191623 92 15 4.0 9.0 0.00 0.00 0.00 63 1012.1
20260903191520 92 69 4.0 9.0 0.00 0.00 0.00 64 1012.1
20260903191418 92 69 3.0 9.0 0.00 0.00 0.00 66 1012.1
20260903191314 92 25 3.0 9.0 0.00 0.00 0.00 65 1012.1
20260903191214 92 21 3.0 9.0 0.00 0.00 0.00 66 1012.1
20260903191205 92 51 3.0 9.0 0.00 0.00 0.00 66 1012.1
20260903191149 93 92 3.0 9.0 0.00 0.00 0.00 65 1012.2
20260903191114 92 29 3.0 9.0 0.00 0.00 0.00 67 1012.1
20260903191032 92 36 3.0 9.0 0.00 0.00 0.00 66 1012.1
20260903190908 92 64 3.0 9.0 0.00 0.00 0.00 66 1012.1
20260903190807 93 95 3.0 8.0 0.00 0.00 0.00 65 1012.2
20260903190651 93 107 3.0 9.0 0.00 0.00 0.00 65 1012.2
20260903190547 93 139 3.0 9.0 0.00 0.00 0.00 65 1012.2
20260903190447 93 76 4.0 9.0 0.00 0.00 0.00 65 1012.2
20260903190347 93 52 4.0 9.0 0.00 0.00 0.00 65 1012.2
20260903190244 93 59 4.0 9.0 0.00 0.00 0.00 64 1012.2
20260903190202 93 40 4.0 9.0 0.00 0.00 0.00 64 1012.2
20260903190145 93 81 4.0 9.0 0.00 0.00 0.00 64 1012.2
20260903190042 93 57 4.0 9.0 0.00 0.00 0.00 64 1012.2
20260903185942 93 26 4.0 9.0 0.00 0.00 0.00 64 1012.2
20260903185839 93 29 4.0 9.0 0.00 0.00 0.00 64 1012.2
20260903185736 93 2 4.0 9.0 0.00 0.00 0.00 64 1012.3
20260903185701 94 74 4.0 9.0 0.00 0.00 0.00 63 1012.3
20260903185633 94 138 4.0 9.0 0.00 0.00 0.00 63 1012.3
20260903185528 93 132 4.0 9.0 0.00 0.00 0.00 65 1012.3
20260903185427 93 92 4.0 11.0 0.00 0.00 0.00 65 1012.3
20260903185327 93 31 4.0 11.0 0.00 0.00 0.00 64 1012.3
20260903185221 93 49 4.0 11.0 0.00 0.00 0.00 64 1012.3
20260903185158 93 36 4.0 11.0 0.00 0.00 0.00 64 1012.3
20260903185118 93 102 4.0 11.0 0.00 0.00 0.00 66 1012.4
20260903185018 94 20 4.0 11.0 0.00 0.00 0.00 65 1012.3
20260903184909 94 63 4.0 11.0 0.00 0.00 0.00 65 1012.3
20260903184806 94 55 4.0 11.0 0.00 0.00 0.00 65 1012.3
20260903184704 94 124 4.0 11.0 0.00 0.00 0.00 65 1012.3
20260903184659 94 169 4.0 11.0 0.00 0.00 0.00 65 1012.3
20260903184604 94 90 4.0 11.0 0.00 0.00 0.00 60 1012.2
20260903184503 94 96 4.0 11.0 0.00 0.00 0.00 60 1012.2
20260903184418 94 96 4.0 10.0 0.00 0.00 0.00 60 1012.2
20260903184359 94 114 4.0 9.0 0.00 0.00 0.00 60 1012.2
20260903184307 94 95 4.0 9.0 0.00 0.00 0.00 60 1012.2
20260903184301 94 96 4.0 10.0 0.00 0.00 0.00 60 1012.2
20260903184051 94 24 4.0 10.0 0.00 0.00 0.00 60 1012.2
20260903183951 94 82 4.0 10.0 0.00 0.00 0.00 58 1012.3
20260903183829 94 82 4.0 10.0 0.00 0.00 0.00 58 1012.3
20260903183730 94 108 3.0 10.0 0.00 0.00 0.00 59 1012.5
20260903183656 94 74 3.0 10.0 0.00 0.00 0.00 59 1012.5
20260903183627 94 141 3.0 10.0 0.00 0.00 0.00 59 1012.5
20260903183503 94 96 2.0 10.0 0.00 0.00 0.00 59 1012.5
20260903183400 95 100 2.0 10.0 0.00 0.00 0.00 58 1012.5
20260903183247 95 91 2.0 10.0 0.00 0.00 0.00 58 1012.5
20260903183153 95 88 2.0 10.0 0.00 0.00 0.00 56 1012.4
20260903183145 95 97 2.0 10.0 0.00 0.00 0.00 56 1012.4
20260903183042 95 80 2.0 9.0 0.00 0.00 0.00 56 1012.4
20260903182930 95 66 2.0 6.0 0.00 0.00 0.00 55 1012.5
20260903182829 95 26 2.0 6.0 0.00 0.00 0.00 57 1012.5
20260903182729 94 0 2.0 6.0 0.00 0.00 0.00 56 1012.5
20260903182652 94 59 2.0 6.0 0.00 0.00 0.00 56 1012.5
20260903182628 95 1 2.0 6.0 0.00 0.00 0.00 54 1012.6
20260903182527 95 194 2.0 6.0 0.00 0.00 0.00 54 1012.6
20260903182427 95 81 2.0 5.0 0.00 0.00 0.00 54 1012.6
20260903182328 95 83 2.0 5.0 0.00 0.00 0.00 54 1012.6
20260903182227 95 52 3.0 5.0 0.00 0.00 0.00 54 1012.6
20260903182150 95 108 2.0 5.0 0.00 0.00 0.00 54 1012.6
20260903182125 95 67 2.0 5.0 0.00 0.00 0.00 54 1012.6
20260903182025 94 55 2.0 7.0 0.00 0.00 0.00 56 1012.6
20260903181922 94 83 2.0 7.0 0.00 0.00 0.00 56 1012.6
20260903181818 94 58 3.0 7.0 0.00 0.00 0.00 56 1012.6
20260903181720 94 67 2.0 7.0 0.00 0.00 0.00 56 1012.6
20260903181648 94 58 2.0 7.0 0.00 0.00 0.00 56 1012.6
20260903181606 94 6 2.0 7.0 0.00 0.00 0.00 54 1012.6
20260903181457 94 102 2.0 7.0 0.00 0.00 0.00 54 1012.6
20260903181354 94 208 2.0 7.0 0.00 0.00 0.00 54 1012.6
20260903181249 94 70 2.0 7.0 0.00 0.00 0.00 55 1012.7
20260903181150 94 63 2.0 7.0 0.00 0.00 0.00 55 1012.7
20260903181146 94 60 2.0 7.0 0.00 0.00 0.00 55 1012.7
20260903181046 94 79 3.0 7.0 0.00 0.00 0.00 56 1012.7
20260903180945 94 72 3.0 7.0 0.00 0.00 0.00 55 1012.7
20260903180845 94 110 2.0 6.0 0.00 0.00 0.00 55 1012.7
20260903180745 94 352 2.0 6.0 0.00 0.00 0.00 55 1012.7
20260903180650 94 54 3.0 6.0 0.00 0.00 0.00 54 1012.8
20260903180646 94 82 3.0 6.0 0.00 0.00 0.00 54 1012.8
20260903180546 94 92 3.0 6.0 0.00 0.00 0.00 56 1012.8
20260903180445 94 58 2.0 6.0 0.00 0.00 0.00 56 1012.8
20260903180340 94 61 2.0 6.0 0.00 0.00 0.00 56 1012.8
20260903180239 94 97 2.0 6.0 0.00 0.00 0.00 56 1012.8
20260903180148 94 96 2.0 6.0 0.00 0.00 0.00 57 1012.9
20260903180139 94 44 2.0 6.0 0.00 0.00 0.00 57 1012.9
20260903180037 94 42 1.0 6.0 0.00 0.00 0.00 57 1012.9
20260903175937 94 34 1.0 6.0 0.00 0.00 0.00 60 1012.9
20260903175837 94 33 1.0 4.0 0.00 0.00 0.00 60 1012.9
20260903175733 94 92 1.0 4.0 0.00 0.00 0.00 60 1012.9
20260903175648 94 43 1.0 6.0 0.00 0.00 0.00 62 1013.0
20260903175634 94 59 2.0 6.0 0.00 0.00 0.00 62 1013.0
20260903175532 94 295 2.0 6.0 0.00 0.00 0.00 61 1013.0
20260903175430 93 54 2.0 6.0 0.00 0.00 0.00 61 1013.0
20260903175331 93 29 2.0 6.0 0.00 0.00 0.00 62 1013.0
20260903175230 93 9 2.0 6.0 0.00 0.00 0.00 62 1013.0
20260903175148 93 118 2.0 6.0 0.00 0.00 0.00 62 1013.0
20260903175128 93 0 2.0 6.0 0.00 0.00 0.00 62 1013.0
20260903175022 93 271 2.0 6.0 0.00 0.00 0.00 62 1013.0
20260903174916 93 19 2.0 6.0 0.00 0.00 0.00 62 1013.0
20260903174813 93 27 3.0 6.0 0.00 0.00 0.00 62 1013.0
20260903174706 92 70 2.0 6.0 0.00 0.00 0.00 64 1013.1
20260903174641 92 70 2.0 6.0 0.00 0.00 0.00 64 1013.1
20260903174601 92 47 2.0 6.0 0.00 0.00 0.00 64 1013.1
20260903174501 92 77 2.0 6.0 0.00 0.00 0.00 65 1013.1
20260903174359 92 81 2.0 6.0 0.00 0.00 0.00 66 1013.1
20260903174300 92 101 3.0 6.0 0.00 0.00 0.00 66 1013.1
20260903174158 92 74 3.0 6.0 0.00 0.00 0.00 67 1013.2
20260903174138 92 96 3.0 6.0 0.00 0.00 0.00 67 1013.2
20260903174055 92 97 3.0 6.0 0.00 0.00 0.00 67 1013.2
20260903173952 92 101 3.0 6.0 0.00 0.00 0.00 67 1013.2
20260903173849 92 88 3.0 6.0 0.00 0.00 0.00 67 1013.2
20260903173746 92 93 3.0 6.0 0.00 0.00 0.00 67 1013.2
20260903173647 92 123 3.0 6.0 0.00 0.00 0.00 68 1013.2
20260903173639 92 79 3.0 6.0 0.00 0.00 0.00 68 1013.2
20260903173547 92 74 3.0 6.0 0.00 0.00 0.00 69 1013.3
20260903173446 92 123 3.0 6.0 0.00 0.00 0.00 69 1013.3
20260903173347 92 51 3.0 6.0 0.00 0.00 0.00 67 1013.3
20260903173246 92 61 3.0 6.0 0.00 0.00 0.00 66 1013.3
20260903173147 91 59 2.0 5.0 0.00 0.00 0.00 69 1013.3
20260903173139 91 74 2.0 5.0 0.00 0.00 0.00 69 1013.3
20260903173047 91 54 2.0 6.0 0.00 0.00 0.00 69 1013.3
20260903172945 91 50 2.0 6.0 0.00 0.00 0.00 69 1013.3
20260903172846 91 153 2.0 6.0 0.00 0.00 0.00 69 1013.3
20260903172743 91 70 2.0 6.0 0.00 0.00 0.00 69 1013.3
20260903172640 91 54 2.0 6.0 0.00 0.00 0.00 70 1013.3
20260903172537 91 8 2.0 6.0 0.00 0.00 0.00 71 1013.3
20260903172438 91 48 2.0 6.0 0.00 0.00 0.00 71 1013.3
20260903172335 91 35 2.0 6.0 0.00 0.00 0.00 71 1013.3
20260903172234 91 188 2.0 6.0 0.00 0.00 0.00 71 1013.4
20260903172139 91 93 2.0 6.0 0.00 0.00 0.00 71 1013.4
20260903172134 91 101 2.0 6.0 0.00 0.00 0.00 71 1013.4
20260903172034 91 56 2.0 6.0 0.00 0.00 0.00 71 1013.4
20260903171934 91 84 2.0 6.0 0.00 0.00 0.00 71 1013.4
20260903171834 91 97 3.0 6.0 0.00 0.00 0.00 71 1013.4
20260903171734 91 86 2.0 6.0 0.00 0.00 0.00 71 1013.4
20260903171639 91 94 2.0 5.0 0.00 0.00 0.00 71 1013.4
20260903171634 91 112 2.0 5.0 0.00 0.00 0.00 71 1013.4
20260903171534 91 56 2.0 5.0 0.00 0.00 0.00 72 1013.4
20260903171434 91 47 2.0 5.0 0.00 0.00 0.00 72 1013.4
20260903171334 91 19 2.0 5.0 0.00 0.00 0.00 71 1013.4
20260903171230 91 99 2.0 5.0 0.00 0.00 0.00 71 1013.5
20260903171136 91 256 2.0 5.0 0.00 0.00 0.00 71 1013.5